                ,  0.301,  0.397,  0.494,  0.590,  0.687,  0.784,  0.880,  0.977,  1.073,  1.170,  1.267,  1.363,  1.460,  1.556,  1.653,  1.749,  1.846,  1.943,  2.039,  2.136,  2.232,  2.329,  2.426,  2.522,  2.619,  2.715,  2.812,  2.909,  3.005,  3.102,  3.198,  3.295,  3.392,  3.488,  3.585,  3.681,  3.778,  3.875,  3.971,  4.068,  4.164,  4.261,  4.357,  4.454,  4.551,  4.647,  4.744,  4.840,  4.937,  5.034,  5.130,  5.227,  5.323,  5.420,  5.517,  5.613,  5.710,  5.806,  5.903,  6.000,  6.096,  6.193,  6.289,  6.386,  6.483,  6.579,  6.676,  6.772,  6.869,  6.965,  7.062,  7.159,  7.255,  7.352,  7.448,  7.545,  7.642,  7.738,  7.835,  7.931
2016/04/07 00:00,  999.0,  999.0,  999.0,    3.3,  999.0,  999.0,  999.0,  999.0,  999.0,  999.0,  999.0,  999.0,  999.0,  999.0,  999.0,    5.2,    4.5,  999.0,  999.0,    5.4,    6.7,    7.9,    9.1,   10.6,   12.4,   14.1,   17.6,  999.0,  999.0,  999.0,  999.0,  999.0,  999.0,  999.0,  999.0,  999.0,  999.0,  999.0,  999.0,  999.0,  999.0,  999.0,  999.0,  999.0,  999.0,  999.0,  999.0,  999.0,  999.0,  999.0,  999.0,  999.0,  999.0,  999.0,  999.0,  999.0,  999.0,  999.0,  999.0,  999.0,  999.0,  999.0,  999.0,  999.0,  999.0,  999.0,  999.0,  999.0,  999.0,  999.0,  999.0,  999.0,  999.0,  999.0,  999.0,  999.0,  999.0,  999.0,  999.0,  999.0
2016/04/07 00:10,  999.0,  999.0,  999.0,  999.0,    0.4,  999.0,  999.0,  999.0,  999.0,  999.0,  999.0,  999.0,  999.0,  999.0,  999.0,  999.0,  999.0,    5.5,    5.8,  999.0,  999.0,  999.0,    9.6,   11.5,   12.9,   14.5,   16.7,  999.0,  999.0,  999.0,  999.0,  999.0,  999.0,  999.0,  999.0,  999.0,  999.0,  999.0,  999.0,  999.0,  999.0,  999.0,  999.0,  999.0,  999.0,  999.0,  999.0,  999.0,  999.0,  999.0,  999.0,  999.0,  999.0,  999.0,  999.0,  999.0,  999.0,  999.0,  999.0,  999.0,  999.0,  999.0,  999.0,  999.0,  999.0,  999.0,  999.0,  999.0,  999.0,  999.0,  999.0,  999.0,  999.0,  999.0,  999.0,  999.0,  999.0,  999.0,  999.0,  999.0
2016/04/07 00:20,  999.0,  999.0,  999.0,  999.0,  999.0,  999.0,  999.0,  999.0,  999.0,  999.0,  999.0,  999.0,  999.0,  999.0,  999.0,  999.0,  999.0,  999.0,  999.0,    3.3,  999.0,  999.0,    8.9,   10.8,   12.4,   14.3,  999.0,  999.0,  999.0,  999.0,  999.0,  999.0,  999.0,  999.0,  999.0,  999.0,  999.0,  999.0,  999.0,  999.0,  999.0,  999.0,  999.0,  999.0,  999.0,  999.0,  999.0,  999.0,  999.0,  999.0,  999.0,  999.0,  999.0,  999.0,  999.0,  999.0,  999.0,  999.0,  999.0,  999.0,  999.0,  999.0,  999.0,  999.0,  999.0,  999.0,  999.0,  999.0,  999.0,  999.0,  999.0,  999.0,  999.0,  999.0,  999.0,  999.0,  999.0,  999.0,  999.0,  999.0
2016/04/07 00:30,  999.0,    1.0,  999.0,    1.6,    2.0,  999.0,  999.0,  999.0,  999.0,  999.0,  999.0,  999.0,  999.0,  999.0,  999.0,  999.0,    4.6,    2.2,  999.0,    5.6,    7.6,    7.2,  999.0,  999.0,  999.0,  999.0,  999.0,  999.0,  999.0,  999.0,  999.0,  999.0,  999.0,  999.0,  999.0,  999.0,  999.0,  999.0,  999.0,  999.0,  999.0,  999.0,  999.0,  999.0,  999.0,  999.0,  999.0,  999.0,  999.0,  999.0,  999.0,  999.0,  999.0,  999.0,  999.0,  999.0,  999.0,  999.0,  999.0,  999.0,  999.0,  999.0,  999.0,  999.0,  999.0,  999.0,  999.0,  999.0,  999.0,  999.0,  999.0,  999.0,  999.0,  999.0,  999.0,  999.0,  999.0,  999.0,  999.0,  999.0
2016/04/07 00:40,  999.0,  999.0,  999.0,  999.0,  999.0,  999.0,  999.0,  999.0,  999.0,  999.0,  999.0,  999.0,  999.0,  999.0,  999.0,  999.0,  999.0,  999.0,  999.0,    7.2,  999.0,    7.8,    9.6,  999.0,  999.0,  999.0,  999.0,   -0.4,  999.0,    0.1,    0.4,    0.2,    0.1,  999.0,   -0.1,  999.0,  999.0,  999.0,  999.0,    0.1,  999.0,  999.0,  999.0,  999.0,  999.0,  999.0,  999.0,  999.0,  999.0,  999.0,  999.0,  999.0,   -0.1,  999.0,  999.0,  999.0,    0.1,  999.0,  999.0,  999.0,  999.0,  999.0,  999.0,   -0.0,  999.0,  999.0,  999.0,  999.0,  999.0,  999.0,  999.0,  999.0,  999.0,  999.0,  999.0,  999.0,  999.0,  999.0,  999.0,  999.0
2016/04/07 00:50,  999.0,  999.0,  999.0,  999.0,  999.0,  999.0,  999.0,  999.0,  999.0,  999.0,  999.0,  999.0,  999.0,  999.0,  999.0,  999.0,  999.0,  999.0,  999.0,  999.0,  999.0,  999.0,  999.0,  999.0,  999.0,  999.0,   -0.9,    0.0,    0.0,   -0.2,    0.1,    0.0,   -0.6,  999.0,    0.1,  999.0,  999.0,  999.0,  999.0,  999.0,  999.0,  999.0,  999.0,  999.0,  999.0,  999.0,  999.0,  999.0,  999.0,  999.0,  999.0,  999.0,  999.0,  999.0,   -1.0,  999.0,    0.2,  999.0,    0.4,  999.0,  999.0,   -0.1,  999.0,   -0.0,    0.1,  999.0,  999.0,  999.0,  999.0,  999.0,  999.0,  999.0,  999.0,  999.0,  999.0,  999.0,  999.0,  999.0,  999.0,  999.0
2016/04/07 01:00,  999.0,  999.0,  999.0,  999.0,  999.0,  999.0,  999.0,  999.0,    2.6,  999.0,  999.0,  999.0,  999.0,  999.0,    7.1,  999.0,  999.0,    5.8,    5.9,    6.6,    8.4,    9.8,  999.0,  999.0,  999.0,  999.0,   -0.6,   -0.1,    5.2,   -0.2,    0.3,    0.2,   -0.7,    0.0,  999.0,  999.0,  999.0,  999.0,  999.0,   -0.1,  999.0,   -0.4,   -0.1,  999.0,    0.0,  999.0,  999.0,  999.0,  999.0,  999.0,  999.0,  999.0,  999.0,  999.0,   -0.4,    0.2,    0.2,  999.0,  999.0,   -0.2,  999.0,  999.0,  999.0,  999.0,  999.0,  999.0,  999.0,  999.0,  999.0,  999.0,  999.0,  999.0,  999.0,  999.0,  999.0,  999.0,  999.0,  999.0,  999.0,  999.0
2016/04/07 01:10,  999.0,  999.0,  999.0,  999.0,  999.0,  999.0,  999.0,  999.0,    2.7,  999.0,  999.0,  999.0,  999.0,  999.0,  999.0,    7.6,    6.3,    6.3,  999.0,  999.0,    8.0,    9.1,   10.9,  999.0,  999.0,  999.0,  999.0,  999.0,  999.0,  999.0,  999.0,  999.0,  999.0,  999.0,  999.0,  999.0,  999.0,  999.0,  999.0,  999.0,  999.0,  999.0,  999.0,  999.0,  999.0,  999.0,  999.0,  999.0,  999.0,  999.0,  999.0,  999.0,  999.0,  999.0,  999.0,  999.0,  999.0,  999.0,  999.0,  999.0,  999.0,  999.0,  999.0,  999.0,  999.0,  999.0,  999.0,  999.0,  999.0,  999.0,  999.0,  999.0,  999.0,  999.0,  999.0,  999.0,  999.0,  999.0,  999.0,  999.0
2016/04/07 01:20,  999.0,  999.0,    2.1,    1.9,    1.6,  999.0,  999.0,  999.0,  999.0,  999.0,  999.0,  999.0,  999.0,  999.0,    7.5,    7.8,    7.6,    6.8,  999.0,  999.0,  999.0,    9.7,   10.7,  999.0,   14.0,  999.0,  999.0,  999.0,  999.0,  999.0,  999.0,  999.0,  999.0,  999.0,  999.0,   15.3,  999.0,  999.0,  999.0,  999.0,  999.0,  999.0,  999.0,  999.0,  999.0,  999.0,  999.0,  999.0,  999.0,  999.0,  999.0,  999.0,  999.0,  999.0,  999.0,  999.0,  999.0,  999.0,  999.0,  999.0,  999.0,  999.0,  999.0,  999.0,  999.0,  999.0,  999.0,  999.0,  999.0,  999.0,  999.0,  999.0,  999.0,  999.0,  999.0,  999.0,  999.0,  999.0,  999.0,  999.0
2016/04/07 01:30,  999.0,    1.0,    1.5,    2.4,    2.6,    1.9,  999.0,  999.0,    2.7,  999.0,  999.0,    6.1,  999.0,  999.0,    7.8,    8.3,    7.9,    7.2,  999.0,  999.0,  999.0,    9.1,   10.1,  999.0,  999.0,  999.0,  999.0,  999.0,  999.0,  999.0,  999.0,  999.0,  999.0,  999.0,  999.0,   14.8,  999.0,  999.0,  999.0,  999.0,  999.0,  999.0,  999.0,  999.0,  999.0,  999.0,  999.0,  999.0,  999.0,  999.0,  999.0,  999.0,  999.0,  999.0,  999.0,  999.0,  999.0,  999.0,  999.0,  999.0,  999.0,  999.0,  999.0,  999.0,  999.0,  999.0,  999.0,  999.0,  999.0,  999.0,  999.0,  999.0,  999.0,  999.0,  999.0,  999.0,  999.0,  999.0,  999.0,  999.0
2016/04/07 01:40,  999.0,    3.5,  999.0,    2.0,    1.6,    1.5,  999.0,  999.0,    3.2,  999.0,    5.2,  999.0,  999.0,    7.3,    7.8,    7.3,    7.3,    6.7,  999.0,  999.0,  999.0,    8.6,   10.6,  999.0,  999.0,   15.4,  999.0,  999.0,   11.6,  999.0,  999.0,  999.0,  999.0,  999.0,  999.0,  999.0,  999.0,  999.0,  999.0,  999.0,  999.0,  999.0,  999.0,  999.0,  999.0,  999.0,  999.0,  999.0,  999.0,  999.0,  999.0,  999.0,  999.0,  999.0,  999.0,  999.0,  999.0,  999.0,  999.0,  999.0,  999.0,  999.0,  999.0,  999.0,  999.0,  999.0,  999.0,  999.0,  999.0,  999.0,  999.0,  999.0,  999.0,  999.0,  999.0,  999.0,  999.0,  999.0,  999.0,  999.0
2016/04/07 01:50,  999.0,  999.0,  999.0,  999.0,    2.1,  999.0,  999.0,  999.0,    3.6,  999.0,  999.0,  999.0,  999.0,    8.2,    8.5,    8.6,    7.9,  999.0,  999.0,  999.0,    9.1,    9.9,    9.8,  999.0,  999.0,  999.0,  999.0,  999.0,  999.0,  999.0,  999.0,  999.0,  999.0,  999.0,  999.0,  999.0,  999.0,  999.0,  999.0,  999.0,  999.0,  999.0,  999.0,  999.0,  999.0,  999.0,  999.0,  999.0,  999.0,  999.0,  999.0,  999.0,  999.0,  999.0,  999.0,  999.0,  999.0,  999.0,  999.0,  999.0,  999.0,  999.0,  999.0,  999.0,  999.0,  999.0,  999.0,  999.0,  999.0,  999.0,  999.0,  999.0,  999.0,  999.0,  999.0,  999.0,  999.0,  999.0,  999.0,  999.0
2016/04/07 02:00,  999.0,    1.3,    1.9,    2.3,    2.3,    1.2,    1.1,    2.8,    3.6,    4.3,    5.7,    7.4,  999.0,    8.6,    9.0,    9.1,    8.8,  999.0,  999.0,  999.0,    9.2,   10.6,  999.0,  999.0,  999.0,  999.0,  999.0,  999.0,  999.0,  999.0,  999.0,  999.0,  999.0,  999.0,  999.0,  999.0,  999.0,  999.0,  999.0,  999.0,  999.0,  999.0,  999.0,  999.0,  999.0,  999.0,  999.0,  999.0,  999.0,  999.0,  999.0,  999.0,  999.0,  999.0,  999.0,  999.0,  999.0,  999.0,  999.0,  999.0,   24.3,   24.8,   25.4,   26.5,   27.7,   28.8,  999.0,  999.0,  999.0,  999.0,  999.0,  999.0,  999.0,  999.0,  999.0,  999.0,  999.0,  999.0,  999.0,  999.0
2016/04/07 02:10,  999.0,  999.0,    1.2,    1.4,    1.0,    1.7,  999.0,    4.3,    3.9,    4.7,    5.9,    6.6,    7.2,    8.3,    8.8,    9.7,    9.5,    9.0,  999.0,  999.0,  999.0,   11.9,  999.0,  999.0,  999.0,  999.0,  999.0,  999.0,  999.0,  999.0,  999.0,  999.0,  999.0,  999.0,  999.0,  999.0,  999.0,  999.0,  999.0,  999.0,  999.0,  999.0,  999.0,  999.0,  999.0,  999.0,  999.0,  999.0,  999.0,  999.0,  999.0,  999.0,  999.0,  999.0,  999.0,  999.0,  999.0,  999.0,  999.0,   24.3,   25.2,   26.2,   27.5,   28.3,   29.1,   30.0,   31.5,  999.0,  999.0,  999.0,  999.0,  999.0,  999.0,  999.0,  999.0,  999.0,  999.0,  999.0,  999.0,  999.0
2016/04/07 02:20,  999.0,  999.0,    2.8,    1.6,    1.3,    1.1,  999.0,    3.6,    3.9,    5.0,    5.2,    6.0,    6.7,    7.1,    9.0,    9.6,    9.1,    8.6,  999.0,  999.0,  999.0,    7.1,    5.5,  999.0,    7.7,  999.0,  999.0,  999.0,  999.0,  999.0,  999.0,  999.0,  999.0,  999.0,  999.0,  999.0,  999.0,  999.0,  999.0,  999.0,  999.0,  999.0,  999.0,  999.0,  999.0,  999.0,  999.0,  999.0,  999.0,  999.0,  999.0,  999.0,  999.0,  999.0,  999.0,  999.0,  999.0,   20.4,   22.2,   23.0,   24.6,   25.9,   27.2,   27.4,   28.7,   30.5,   31.1,  999.0,  999.0,  999.0,  999.0,  999.0,  999.0,  999.0,  999.0,  999.0,  999.0,  999.0,  999.0,  999.0
2016/04/07 02:30,  999.0,  999.0,  999.0,  999.0,  999.0,  999.0,  999.0,  999.0,    4.1,    4.9,    5.5,    6.3,    5.8,    6.3,    6.9,    9.0,  999.0,  999.0,  999.0,  999.0,  999.0,  999.0,  999.0,  999.0,  999.0,  999.0,  999.0,  999.0,  999.0,  999.0,  999.0,  999.0,  999.0,  999.0,  999.0,  999.0,  999.0,  999.0,  999.0,  999.0,  999.0,  999.0,  999.0,  999.0,  999.0,  999.0,  999.0,  999.0,  999.0,  999.0,  999.0,  999.0,  999.0,  999.0,  999.0,  999.0,  999.0,  999.0,   23.2,  999.0,  999.0,  999.0,   26.7,   29.2,   29.9,  999.0,  999.0,  999.0,  999.0,  999.0,  999.0,  999.0,  999.0,  999.0,  999.0,  999.0,  999.0,  999.0,  999.0,  999.0
2016/04/07 02:40,  999.0,  999.0,    1.6,    1.6,    2.1,    1.1,    2.5,    3.7,    5.2,    5.5,    6.1,    6.6,    6.7,    7.6,    8.6,    9.4,  999.0,  999.0,  999.0,  999.0,  999.0,  999.0,  999.0,  999.0,    6.6,    6.6,    5.2,  999.0,  999.0,  999.0,  999.0,  999.0,  999.0,  999.0,  999.0,  999.0,  999.0,  999.0,  999.0,  999.0,  999.0,  999.0,  999.0,  999.0,  999.0,  999.0,  999.0,  999.0,  999.0,  999.0,  999.0,  999.0,  999.0,  999.0,  999.0,  999.0,  999.0,  999.0,  999.0,  999.0,  999.0,  999.0,   24.7,   28.1,  999.0,  999.0,  999.0,  999.0,  999.0,  999.0,  999.0,  999.0,  999.0,  999.0,  999.0,  999.0,  999.0,  999.0,  999.0,  999.0
2016/04/07 02:50,  999.0,  999.0,    2.1,    2.1,    1.9,    0.6,    2.8,    4.7,    5.8,    6.7,    7.5,    7.3,    8.7,    8.9,    9.7,   10.3,  999.0,  999.0,  999.0,  999.0,  999.0,    9.9,    9.4,    9.1,    7.4,    7.5,  999.0,  999.0,  999.0,  999.0,  999.0,  999.0,  999.0,  999.0,  999.0,  999.0,  999.0,  999.0,  999.0,  999.0,  999.0,  999.0,  999.0,  999.0,  999.0,  999.0,  999.0,  999.0,  999.0,  999.0,  999.0,  999.0,  999.0,  999.0,  999.0,  999.0,  999.0,  999.0,   23.2,   24.6,   24.9,   25.4,   25.8,   27.0,   28.9,   31.1,  999.0,  999.0,  999.0,  999.0,  999.0,  999.0,  999.0,  999.0,  999.0,  999.0,  999.0,  999.0,  999.0,  999.0
2016/04/07 03:00,  999.0,  999.0,  999.0,  999.0,  999.0,  999.0,  999.0,    5.7,    6.2,    6.9,    6.8,    7.0,    9.3,    8.6,  999.0,  999.0,  999.0,  999.0,  999.0,  999.0,   10.1,   10.0,   10.4,   10.3,   10.4,    9.2,   10.2,  999.0,  999.0,  999.0,  999.0,  999.0,  999.0,  999.0,  999.0,  999.0,  999.0,  999.0,  999.0,  999.0,  999.0,  999.0,  999.0,  999.0,  999.0,  999.0,  999.0,  999.0,  999.0,  999.0,  999.0,  999.0,  999.0,  999.0,   19.4,   19.1,   19.1,   20.7,   22.8,   24.5,   25.0,   25.7,   27.0,   28.2,   29.7,   31.3,  999.0,  999.0,  999.0,  999.0,  999.0,  999.0,  999.0,  999.0,  999.0,  999.0,  999.0,  999.0,  999.0,  999.0
2016/04/07 03:10,  999.0,  999.0,  999.0,  999.0,  999.0,  999.0,  999.0,  999.0,    5.9,    6.4,    7.0,    7.6,    8.8,  999.0,  999.0,  999.0,  999.0,  999.0,  999.0,  999.0,   10.5,   10.6,   10.0,    9.6,    9.3,    9.2,  999.0,  999.0,  999.0,  999.0,  999.0,  999.0,  999.0,  999.0,  999.0,  999.0,  999.0,  999.0,  999.0,  999.0,  999.0,  999.0,  999.0,  999.0,   17.2,  999.0,  999.0,  999.0,  999.0,  999.0,  999.0,  999.0,  999.0,  999.0,  999.0,   19.0,   19.0,   20.8,   23.0,   24.5,   24.6,   25.3,   27.4,   27.8,   29.6,  999.0,  999.0,  999.0,  999.0,  999.0,  999.0,  999.0,  999.0,  999.0,  999.0,  999.0,  999.0,  999.0,  999.0,  999.0
2016/04/07 03:20,  999.0,  999.0,    1.2,  999.0,    2.1,  999.0,  999.0,    4.9,    5.5,    6.7,    6.7,    7.8,    9.2,  999.0,  999.0,  999.0,  999.0,    8.9,  999.0,  999.0,   10.9,   10.9,   10.3,   10.6,    9.6,  999.0,  999.0,  999.0,  999.0,  999.0,  999.0,  999.0,  999.0,  999.0,  999.0,  999.0,  999.0,  999.0,  999.0,  999.0,  999.0,  999.0,  999.0,  999.0,  999.0,  999.0,  999.0,  999.0,  999.0,  999.0,  999.0,  999.0,  999.0,   17.0,   15.5,   17.3,   19.8,   22.8,   24.0,   25.2,   25.9,   26.6,   27.1,   28.2,   28.9,   28.8,  999.0,  999.0,  999.0,  999.0,  999.0,  999.0,  999.0,  999.0,  999.0,  999.0,  999.0,  999.0,  999.0,  999.0
2016/04/07 03:30,  999.0,  999.0,  999.0,  999.0,  999.0,  999.0,  999.0,    5.5,    5.2,    5.3,    5.4,    6.7,  999.0,    9.3,  999.0,  999.0,  999.0,  999.0,  999.0,   10.7,   11.7,   11.1,    9.9,    9.2,  999.0,  999.0,  999.0,  999.0,  999.0,  999.0,  999.0,  999.0,  999.0,  999.0,  999.0,  999.0,  999.0,  999.0,  999.0,  999.0,  999.0,  999.0,  999.0,  999.0,  999.0,  999.0,  999.0,  999.0,  999.0,  999.0,  999.0,   17.0,   16.9,   16.8,   16.4,   17.9,   21.1,   23.5,   24.1,   24.3,   24.8,   25.7,   26.8,   27.3,   27.2,   28.5,   30.0,  999.0,  999.0,  999.0,  999.0,  999.0,  999.0,  999.0,  999.0,  999.0,  999.0,  999.0,  999.0,  999.0
2016/04/07 03:40,  999.0,  999.0,  999.0,  999.0,  999.0,  999.0,  999.0,    6.0,    3.2,    5.1,    5.7,    6.3,  999.0,    7.4,  999.0,  999.0,  999.0,  999.0,    7.2,  999.0,  999.0,    9.7,  999.0,    9.3,  999.0,  999.0,  999.0,  999.0,  999.0,  999.0,  999.0,  999.0,  999.0,  999.0,  999.0,  999.0,  999.0,  999.0,  999.0,  999.0,  999.0,  999.0,  999.0,  999.0,  999.0,  999.0,  999.0,  999.0,  999.0,   15.5,   16.2,   16.1,   16.6,   16.5,   18.1,   21.5,   24.5,   25.3,   25.5,   25.3,   25.5,   26.3,   26.5,   26.8,   27.8,   29.3,   31.0,   30.7,   31.8,   33.2,   35.6,   37.4,  999.0,  999.0,  999.0,  999.0,  999.0,  999.0,  999.0,  999.0
2016/04/07 03:50,  999.0,    0.8,   -0.3,  999.0,  999.0,  999.0,  999.0,  999.0,    4.3,    5.4,    5.5,  999.0,  999.0,  999.0,  999.0,  999.0,    9.6,  999.0,    8.9,    9.7,   10.2,   10.5,  999.0,  999.0,    3.5,  999.0,  999.0,  999.0,  999.0,  999.0,  999.0,   -0.1,  999.0,  999.0,  999.0,   -0.1,  999.0,  999.0,  999.0,  999.0,  999.0,  999.0,  999.0,  999.0,  999.0,  999.0,  999.0,  999.0,   14.9,   15.4,   16.0,   16.1,   16.8,   18.6,   21.8,   23.8,   23.8,   24.0,   24.1,   24.8,   25.6,   26.3,   27.5,   28.6,   29.6,   30.1,   30.4,   31.1,   32.0,   33.8,   34.8,   37.8,  999.0,  999.0,  999.0,  999.0,  999.0,  999.0,  999.0,  999.0
2016/04/07 04:00,  999.0,    1.6,  999.0,    2.3,  999.0,  999.0,  999.0,    7.6,  999.0,    4.6,  999.0,  999.0,  999.0,    8.9,    9.2,   10.2,    8.5,  999.0,    9.0,    9.6,    9.3,  999.0,  999.0,    1.6,    1.5,  999.0,    0.4,    0.0,   -0.0,    0.1,  999.0,    0.1,    0.1,   -0.0,    0.3,  999.0,  999.0,  999.0,  999.0,  999.0,  999.0,  999.0,  999.0,  999.0,  999.0,  999.0,  999.0,   15.9,   15.3,   15.2,   15.4,   16.4,   18.7,   21.0,   22.2,   22.4,   23.5,   24.8,   26.3,   28.4,   29.9,   30.2,   30.2,   30.3,   30.5,   30.8,   31.7,   32.4,   33.3,   34.6,   36.9,   37.7,  999.0,  999.0,  999.0,  999.0,  999.0,  999.0,  999.0,  999.0
2016/04/07 04:10,  999.0,    0.8,    1.6,    1.6,    0.6,    0.1,   -0.4,  999.0,  999.0,   -5.7,  999.0,  999.0,  999.0,  999.0,   -3.9,   -1.3,   -0.7,   -0.1,    0.5,  999.0,    2.4,    2.8,  999.0,    1.7,   -0.0,  999.0,   -0.0,    0.3,    0.3,    0.5,  999.0,    0.2,   -0.1,    0.2,  999.0,    0.4,  999.0,  999.0,  999.0,  999.0,  999.0,  999.0,  999.0,   17.0,   16.5,   16.5,   16.1,   15.8,   15.3,   15.2,   15.5,   17.1,   19.2,   20.9,   21.7,   22.2,   23.2,   25.1,   27.7,   30.2,   30.3,   30.1,   30.4,   30.6,   30.9,   31.6,   31.7,   32.2,   33.3,   35.2,   37.5,   37.6,  999.0,  999.0,  999.0,  999.0,  999.0,  999.0,  999.0,  999.0
2016/04/07 04:20,  999.0,    0.7,  999.0,  999.0,  999.0,  999.0,  999.0,   -1.5,  999.0,   -3.5,   -5.8,   -5.7,   -5.1,   -5.2,   -2.2,   -0.6,   -0.4,   -0.1,    0.0,    1.1,    1.1,    2.3,    1.3,    0.8,    0.4,    0.1,  999.0,   -0.9,    0.2,   -0.1,    0.5,   -0.2,    0.0,    0.1,    0.2,  999.0,  999.0,  999.0,  999.0,  999.0,  999.0,  999.0,   15.8,   15.7,   15.6,   15.1,   14.6,   14.6,   14.7,   14.9,   16.2,   17.6,   19.1,   20.5,   21.1,   22.2,   24.4,   27.4,   30.2,   31.2,   32.0,   31.5,   31.4,   31.6,   31.9,   31.9,   32.1,   33.0,   34.2,   36.5,   37.3,   37.0,   37.6,  999.0,  999.0,  999.0,   39.1,   40.9,   40.8,  999.0
2016/04/07 04:30,  999.0,  999.0,  999.0,  999.0,  999.0,  999.0,  999.0,   -1.6,   -3.4,    2.3,   -2.5,    0.8,   -3.2,  999.0,   -4.7,   -0.8,   -0.2,   -0.2,   -0.1,    0.8,    0.7,    0.6,    1.3,    1.6,    0.4,    0.2,    0.0,    0.5,   -0.2,    0.2,    0.1,    0.3,    0.1,  999.0,   -0.0,  999.0,  999.0,   12.5,  999.0,   13.9,   18.1,   17.9,   18.0,   17.1,   16.0,   15.7,   14.8,   14.3,   14.5,   15.2,   16.4,   17.5,   18.5,   20.0,   21.6,   23.5,   26.3,   29.4,   30.5,   31.3,   32.1,   31.6,   31.7,   31.4,   31.9,   32.0,   32.5,   33.6,   35.1,   36.1,   36.2,   36.8,   37.9,   39.1,   39.6,   39.5,   40.4,   40.4,   42.2,   43.3
2016/04/07 04:40,  999.0,  999.0,  999.0,  999.0,  999.0,  999.0,  999.0,  999.0,    5.4,    4.7,    5.0,    5.0,    5.7,    4.7,  999.0,  999.0,   -0.1,   -0.2,   -0.0,    0.5,    1.0,    1.2,    2.1,    1.8,    0.2,  999.0,    0.3,    0.2,    0.1,    0.2,   -0.2,    0.3,    1.0,  999.0,  999.0,  999.0,   13.7,   18.6,   17.9,   17.0,   16.8,   16.7,   16.7,   16.0,   15.1,   14.6,   14.6,   15.3,   16.2,   16.6,   17.3,   17.7,   18.6,   20.3,   22.5,   25.4,   28.3,   31.5,   31.6,   31.9,   32.0,   31.9,   31.8,   32.1,   32.4,   32.6,   33.1,   34.3,   35.7,   36.8,   37.1,   36.8,   37.5,   37.7,   38.6,   38.8,   38.9,   39.3,  999.0,   41.6
2016/04/07 04:50,  999.0,   -0.1,  999.0,  999.0,  999.0,  999.0,  999.0,  999.0,    4.6,    3.9,  999.0,  999.0,  999.0,    3.2,  999.0,  999.0,    0.8,    0.2,    0.1,  999.0,    5.4,    6.1,    6.1,    4.6,  999.0,  999.0,  999.0,    0.0,  999.0,  999.0,  999.0,  999.0,  999.0,    9.6,   13.7,   13.9,   14.3,   15.1,   16.3,   17.8,   16.8,   16.4,   15.1,   14.3,   13.9,   13.9,   15.3,   15.9,   16.5,   17.3,   18.0,   18.5,   19.4,   22.7,   25.9,   29.9,   31.2,   32.3,   32.5,   32.8,   32.8,   32.5,   32.5,   33.5,   33.9,   34.0,   34.8,   35.5,   36.4,   37.2,   37.2,   38.0,   39.3,   39.5,   39.5,   39.6,   41.3,   41.0,  999.0,  999.0
2016/04/07 05:00,  999.0,   -0.7,   -1.3,    0.3,    0.8,    1.3,  999.0,    2.6,    3.3,    2.9,    3.8,    5.0,    4.7,    3.9,  999.0,    5.0,  999.0,  999.0,    7.4,    7.4,    7.7,    7.5,    7.2,  999.0,  999.0,  999.0,  999.0,  999.0,  999.0,  999.0,  999.0,  999.0,   11.2,   13.7,   15.9,   16.0,   16.2,   16.3,   16.7,   16.6,   15.7,   14.4,   13.6,   13.8,   14.6,   15.2,   16.0,   16.9,   17.5,   17.3,   17.6,   19.2,   21.8,   25.6,   29.5,   30.2,   31.2,   32.5,   33.2,   32.6,   32.5,   32.6,   33.9,   34.5,   35.5,   36.3,   36.7,   37.1,   37.3,   38.3,   39.0,   38.6,   39.7,   40.2,   39.2,   39.6,   40.6,   41.6,   42.8,  999.0
2016/04/07 05:10,  999.0,  999.0,   -1.3,   -0.6,    0.7,   -1.3,    0.7,    1.5,    1.6,    2.3,    3.7,    5.1,    4.1,    3.7,    4.3,    4.1,    5.3,    6.4,    5.8,    6.9,    7.7,    6.9,    6.9,  999.0,  999.0,  999.0,  999.0,  999.0,  999.0,  999.0,   11.0,   10.7,   11.1,   14.8,   14.7,   14.5,   14.0,   13.7,   13.0,   12.8,   13.3,   14.2,   14.9,   14.9,   14.8,   15.2,   15.2,   15.3,   15.6,   16.3,   18.4,   22.1,   26.3,   29.1,   30.9,   31.1,   32.0,   32.5,   33.0,   33.1,   32.6,   33.3,   35.0,   35.9,   36.4,   37.8,   38.9,   40.2,   40.3,   40.8,   40.6,   40.2,   40.7,   39.2,   40.1,  999.0,   42.1,  999.0,  999.0,  999.0
2016/04/07 05:20,  999.0,  999.0,  999.0,  999.0,  999.0,    0.8,    1.6,    1.3,    2.4,    3.1,    4.4,    4.2,    3.8,    3.7,    3.9,    5.3,  999.0,  999.0,  999.0,  999.0,  999.0,    6.5,    7.4,  999.0,    7.7,    7.6,    9.8,   10.0,    8.6,  999.0,   10.5,   11.1,   11.6,   12.5,   12.5,   12.1,   11.6,   11.3,   11.8,   12.9,   13.8,   14.4,   14.4,   13.9,   13.7,   13.7,   13.4,   13.0,   14.1,   16.1,   19.0,   22.6,   26.6,   27.6,   28.7,   29.6,   30.6,   31.0,   31.6,   31.4,   32.0,   33.0,   34.3,   35.0,   35.6,   36.0,   37.6,   39.2,   39.5,   39.6,   39.2,   38.7,   39.3,   38.3,   39.9,   41.0,   43.0,   42.2,  999.0,  999.0
2016/04/07 05:30,  999.0,   -1.3,   -0.0,    0.6,  999.0,    0.6,    1.6,    2.5,    3.3,    3.8,    4.1,    4.1,    2.7,    3.1,    4.2,    5.1,    6.2,  999.0,  999.0,  999.0,  999.0,  999.0,  999.0,  999.0,  999.0,  999.0,    7.7,    6.3,    6.2,    9.1,    9.7,    8.9,   10.4,   11.2,   11.7,   11.4,   10.5,   10.1,   10.3,   12.0,   13.0,   13.7,   13.8,   13.7,   12.9,   12.4,   12.8,   13.7,   14.8,   17.5,   22.4,   25.9,   26.9,   27.9,   29.2,   29.8,   30.4,   31.0,   31.3,   31.1,   31.9,   33.5,   34.3,   34.8,   35.9,   37.4,   38.2,   39.0,   39.2,   38.3,   38.1,   38.2,   39.4,   39.8,   39.5,   39.7,   41.1,   42.3,  999.0,  999.0
2016/04/07 05:40,  999.0,   -0.2,  999.0,  999.0,  999.0,  999.0,    1.6,    2.4,    3.0,    3.5,    4.0,    3.8,    3.1,    3.0,    4.8,    5.7,    7.6,    8.5,  999.0,  999.0,  999.0,  999.0,  999.0,    8.8,  999.0,  999.0,    9.8,    9.3,    9.7,    9.9,   10.8,   10.4,   10.2,   10.5,   10.7,   10.1,   10.0,   10.5,   11.2,   12.3,   13.0,   13.4,   13.6,   13.5,   13.4,   13.2,   13.5,   14.5,   15.8,   19.2,   23.9,   27.0,   27.8,   28.4,   29.0,   30.4,   30.3,   31.7,   32.0,   32.1,   33.0,   33.1,   33.5,   34.9,   35.9,   36.6,   37.2,   37.8,   38.6,   38.6,   38.3,   38.3,   38.2,   39.2,   39.9,   39.8,   41.1,   41.5,   40.8,  999.0
2016/04/07 05:50,  999.0,  999.0,  999.0,  999.0,  999.0,  999.0,    2.4,    3.7,    3.7,    4.0,    4.2,    3.4,    3.9,  999.0,    3.1,  999.0,    7.0,    7.6,    8.8,    9.0,   10.7,   10.5,   11.0,   11.5,   13.0,   11.8,    9.9,   11.2,   10.9,   11.1,   10.9,    9.9,    9.1,    9.4,    9.7,    9.8,    9.5,    9.6,   10.8,   11.6,   12.4,   12.4,   11.9,   11.5,   11.4,   11.4,   11.1,   11.8,   14.3,   18.6,   23.3,   26.0,   26.7,   26.6,   27.7,   29.1,   29.8,   30.5,   32.1,   32.4,   32.7,   33.4,   33.8,   34.4,   34.9,   35.9,   36.6,   37.0,   37.8,   38.4,   38.1,   38.4,   38.4,   38.8,   39.3,   39.6,   40.1,   40.2,   42.1,   42.6
2016/04/07 06:00,  999.0,  999.0,  999.0,  999.0,  999.0,  999.0,    3.7,    3.9,    3.4,    3.4,    3.5,    3.9,    2.9,    2.6,    3.2,    4.7,    5.8,    6.9,    8.1,    9.0,    9.6,    9.6,    9.5,   10.0,    8.2,    7.6,    6.7,    5.9,    7.3,    7.9,   10.2,   11.1,   11.7,   13.3,   12.8,   11.7,   10.6,   10.6,   11.6,   12.7,   12.6,   12.5,   12.3,   11.8,   11.2,   10.6,   10.4,   12.2,   16.5,   20.7,   24.5,   26.8,   26.9,   26.7,   27.3,   29.0,   29.6,   30.5,   31.4,   32.3,   32.5,   32.9,   33.1,   33.5,   33.8,   34.6,   36.8,   37.0,   37.7,   37.4,   37.4,   37.4,   37.9,   38.7,   39.2,   40.6,   40.9,   41.6,   42.2,   41.6
2016/04/07 06:10,  999.0,   -0.0,    0.0,  999.0,  999.0,  999.0,  999.0,    1.8,    2.3,    2.6,    2.9,    3.6,    3.1,    3.2,    2.8,    3.4,    5.6,    5.5,    4.9,    7.0,    8.9,    7.5,    6.9,    8.0,    8.5,  999.0,  999.0,  999.0,  999.0,    9.9,    8.8,    8.9,    8.0,    7.3,    7.1,    7.1,    6.9,    7.1,    8.1,    9.4,   10.0,   10.2,   10.0,    9.8,    9.4,    9.3,   10.5,   14.0,   17.6,   21.2,   24.7,   26.1,   26.0,   25.9,   25.8,   27.7,   29.9,   30.5,   31.8,   32.2,   32.4,   33.1,   33.8,   34.5,   34.6,   35.4,   36.5,   36.7,   37.5,   38.4,   38.9,   39.2,   39.8,   39.7,   40.1,   40.7,   40.5,   40.6,   41.7,   42.4
2016/04/07 06:20,  999.0,    0.5,    1.5,  999.0,  999.0,  999.0,  999.0,    2.2,    3.1,    3.9,    4.7,    3.4,    3.4,    3.5,    3.2,    3.4,    4.3,    4.4,  999.0,    4.2,  999.0,  999.0,    5.7,  999.0,  999.0,  999.0,  999.0,  999.0,    9.8,    9.2,    9.8,   10.4,   10.5,    9.4,    8.6,    8.4,    7.3,    7.4,    7.2,    6.9,    6.8,    7.7,    8.1,    8.7,    9.2,   10.6,   13.5,   17.2,   20.5,   24.0,   25.2,   26.3,   26.4,   26.2,   26.8,   28.2,   29.7,   31.1,   32.1,   32.8,   33.5,   33.8,   33.6,   34.8,   36.0,   36.1,   36.4,   36.5,   37.2,   37.5,   38.2,   38.6,   38.8,   38.8,   38.8,   38.9,   39.0,   40.1,   41.6,   42.1
2016/04/07 06:30,  999.0,   -0.1,  999.0,  999.0,  999.0,  999.0,  999.0,  999.0,    2.4,    3.3,    3.8,    4.0,    4.3,    3.9,    3.5,    3.0,    3.3,    4.3,    4.6,    4.7,    5.2,    5.9,    5.6,    6.4,    7.9,    8.6,    9.0,    9.7,    9.9,   10.3,    9.3,    8.7,    8.3,    7.6,    7.6,    7.7,    7.5,    7.0,    6.7,    6.2,    5.9,    5.7,    6.6,    8.0,    9.0,   11.4,   14.3,   19.2,   22.2,   25.1,   26.0,   26.9,   27.1,   27.5,   28.9,   30.2,   31.3,   32.2,   32.7,   33.1,   33.4,   34.2,   35.2,   36.4,   36.1,   35.5,   36.6,   37.3,   36.9,   36.9,   37.3,   38.0,   39.2,   39.1,   39.6,   39.6,   40.6,   40.8,   42.0,   42.5
2016/04/07 06:40,  999.0,    1.0,    1.3,    0.6,  999.0,  999.0,  999.0,  999.0,    3.2,    3.4,    2.5,    2.8,    3.4,    3.2,    2.3,    3.7,    4.7,    4.8,    3.9,    1.6,    4.3,    3.5,  999.0,  999.0,    3.1,  999.0,  999.0,  999.0,  999.0,  999.0,  999.0,    6.8,    6.2,    5.8,    5.6,    5.4,    5.3,    5.1,    5.5,    5.9,    6.4,    6.3,    7.7,   11.3,   14.0,   18.0,   21.8,   24.4,   26.4,   27.2,   28.0,   28.2,   29.2,   30.4,   31.0,   31.8,   31.9,   32.3,   33.0,   33.6,   34.1,   34.2,   35.4,   36.1,   37.0,   36.4,   36.4,   36.7,   36.8,   37.2,   38.3,   39.4,   39.5,   39.5,   40.1,   41.9,   41.9,  999.0,    9.1,   15.2
2016/04/07 06:50,  999.0,    0.7,  999.0,   -0.0,  999.0,  999.0,  999.0,    2.3,    3.0,    3.3,    3.6,    4.0,    4.3,    4.9,    4.6,    4.7,    4.4,    4.1,    4.9,    2.7,    5.7,  999.0,    5.3,    6.7,    5.6,  999.0,   12.8,  999.0,    9.4,  999.0,    5.9,    5.7,    7.6,    6.2,    4.8,    5.0,    5.1,    5.1,    5.1,    5.3,    6.7,    8.2,   10.7,   14.4,   17.0,   21.5,   24.6,   26.3,   27.4,   27.5,   27.5,   28.0,   29.1,   30.1,   31.1,   32.0,   31.9,   32.0,   32.3,   33.0,   32.5,   32.8,   33.7,   34.8,   35.3,   35.7,   35.7,   36.1,   36.1,   37.2,   38.7,   39.3,  999.0,  999.0,  999.0,  999.0,  -14.1,  -13.5,  -13.3,  -13.4
2016/04/07 07:00,  999.0,   -0.0,  999.0,   -0.4,  999.0,  999.0,  999.0,    1.3,    1.6,    2.4,    2.5,    2.7,    3.7,    4.3,    5.3,    5.4,    5.0,    5.2,    4.5,    4.2,    4.7,    7.1,    8.0,    7.4,    4.6,    9.9,    8.4,    7.3,    7.4,    7.3,    7.9,    7.0,    5.0,    5.1,    5.0,    4.2,    3.8,    3.5,    3.7,    4.7,    7.2,   10.7,   14.0,   17.3,   20.6,   23.2,   25.0,   25.4,   25.6,   26.2,   26.9,   27.7,   29.1,   30.0,   30.5,   30.8,   31.5,   31.9,   32.0,   32.5,   32.8,   32.7,   32.8,   33.6,   34.8,   35.6,   35.8,   36.8,   37.5,   39.3,   39.4,  999.0,  999.0,  999.0,  999.0,  999.0,  -13.6,  -13.4,  -14.0,  -12.9
2016/04/07 07:10,  999.0,    0.1,   -0.8,   -0.2,  999.0,  999.0,  999.0,  999.0,    2.7,    2.9,    1.9,    2.2,    3.6,    3.9,  999.0,  999.0,    5.9,    5.7,    5.3,    4.6,    4.4,    4.3,  999.0,    2.7,  999.0,  999.0,    5.6,    3.0,    3.8,    8.5,    3.5,    3.7,    2.7,    2.9,    2.6,    2.5,    3.1,    3.6,    6.6,   10.9,   13.5,   16.6,   20.2,   22.4,   23.6,   24.5,   25.2,   26.4,   27.5,   28.8,   29.3,   29.5,   29.1,   29.4,   29.3,   30.2,   30.3,   30.9,   32.5,   32.3,   32.8,   33.3,   34.2,   34.4,   35.0,   35.1,   36.1,  999.0,  999.0,  999.0,  -15.0,  -14.3,  -14.5,  -14.4,  -13.8,  -13.1,  -12.4,  -12.2,  -11.3,  -10.0
2016/04/07 07:20,  999.0,   -0.4,   -0.1,   -0.4,  999.0,  999.0,  999.0,  999.0,    1.8,    2.3,    2.5,    2.8,    3.7,    4.6,    5.0,  999.0,    5.4,    6.0,    5.3,    4.4,    3.5,    2.9,    2.8,    5.5,    5.6,    8.5,    9.3,    8.7,   10.1,    8.6,    5.0,    3.5,    2.2,    1.3,    1.2,    2.8,    5.2,    8.1,  999.0,   14.4,   18.0,   21.0,   21.9,   23.7,   24.1,   25.3,   26.2,   27.4,   27.5,   27.3,   26.9,   27.7,   27.8,   28.3,   29.2,   29.5,   30.8,   31.4,   32.2,   33.3,   32.8,   33.0,   33.2,   33.8,   34.9,  999.0,  999.0,  999.0,  999.0,  -16.4,  -15.7,  -15.1,  -14.6,  -14.0,  -13.6,  -13.2,  -12.7,  -11.8,  -11.5,  -10.2
2016/04/07 07:30,  999.0,    0.4,    0.5,    0.2,  999.0,  999.0,  999.0,  999.0,  999.0,    1.9,    2.3,    2.1,    2.0,    2.6,    0.5,  999.0,  999.0,    2.1,    3.1,    3.4,    3.4,  999.0,  999.0,  999.0,  999.0,    8.7,    5.8,    4.2,    3.2,    1.7,    0.0,    0.2,    0.9,    0.7,    1.1,    2.8,    4.6,    8.0,   11.6,   14.9,   17.5,   20.0,   22.5,   23.2,   22.8,   23.0,   23.9,   24.8,   25.7,   26.4,   26.6,   26.9,   27.9,   28.6,   29.3,   31.1,   31.9,   32.0,   32.3,   32.4,   31.8,   32.7,   33.3,   34.0,   34.4,   35.1,  999.0,  999.0,  999.0,  999.0,  -16.1,  -15.4,  -15.0,  -14.7,  -13.8,  -12.9,  -12.7,  -12.1,  -11.3,  -10.4
2016/04/07 07:40,  999.0,  999.0,   -0.3,  999.0,    0.1,  999.0,  999.0,  999.0,  999.0,    2.0,    3.2,    3.8,    4.6,    5.6,    6.0,    6.3,  999.0,  999.0,  999.0,    7.5,    7.1,  999.0,  999.0,  999.0,  999.0,    8.4,    8.9,    4.1,    9.9,  999.0,  999.0,   -1.1,   -3.0,    0.9,    6.2,    9.7,   12.6,   15.1,   17.6,   20.0,   21.8,   22.3,   22.6,   23.3,   24.1,   24.7,   25.6,   26.4,   27.5,   28.5,   29.2,   30.3,   31.3,   32.2,   32.7,   32.1,   32.2,   31.7,   32.7,   32.1,   32.4,   32.9,   33.9,   35.1,   36.2,   35.7,  999.0,  999.0,  999.0,  999.0,  999.0,  -14.7,  -13.3,  -12.4,  -11.8,  -11.8,  -11.9,  -11.5,  -10.6,  -10.8
2016/04/07 07:50,  999.0,   -5.0,   -3.7,  999.0,   -4.4,   -3.2,   -2.5,   -2.8,   -1.0,   -0.0,    1.1,    1.4,    3.1,    4.3,    3.5,    2.3,    3.5,    4.7,    1.9,    3.8,    4.7,    1.5,    3.8,    0.5,   -1.4,   -1.9,   -1.8,   -1.8,   -1.9,   -1.8,   -1.7,   -1.7,    2.0,    7.5,   10.3,   13.6,   16.0,   18.0,   19.2,   20.4,   21.1,   22.5,   23.4,   24.4,   25.9,   27.2,   27.8,   28.4,   29.2,   29.5,   30.6,   30.7,   30.8,   31.3,   31.8,   32.9,   32.6,   33.0,   32.3,   32.1,   32.9,   33.3,   34.3,  999.0,  999.0,  999.0,  -16.4,  -15.6,  -14.4,  -14.7,  -13.7,  -13.3,  -13.2,  -12.7,  -11.7,  -10.6,  -10.2,  -11.4,  -11.0,  999.0
2016/04/07 08:00,  999.0,  999.0,  999.0,  999.0,   -1.4,   -2.6,   -1.8,   -0.8,   -2.0,    0.2,    1.7,    2.1,    1.8,    0.6,    0.8,   -1.2,    0.5,    1.9,    1.8,    1.3,   -0.6,   -1.1,   -1.0,   -1.2,   -1.4,   -1.6,   -2.2,   -2.4,   -1.3,   -0.9,   -0.9,    0.2,    3.1,    5.1,    7.3,   11.5,   14.4,   16.7,   18.7,   20.2,   21.3,   22.5,   24.0,   25.3,   26.3,   26.8,   27.6,   28.3,   28.7,   28.9,   29.7,   30.5,   30.7,   31.6,   32.2,   32.7,   32.8,   32.6,   32.3,   34.1,   34.3,  999.0,  999.0,  999.0,  -17.3,  -18.0,  -17.8,  -17.1,  -15.2,  -15.0,  -14.4,  -13.1,  -13.6,  -11.9,  999.0,  999.0,  999.0,  999.0,  999.0,  999.0
2016/04/07 08:10,  999.0,    1.3,    0.7,    0.2,   -0.8,    0.0,   -0.4,   -0.6,   -1.1,   -1.3,    0.2,    1.0,    1.8,    3.9,    4.4,  999.0,    0.2,    0.3,    2.0,    0.3,   -1.1,   -1.9,   -2.9,   -3.8,   -3.9,   -2.7,   -1.8,    0.2,    1.7,    2.3,    2.8,    2.6,    3.3,    5.3,    7.9,   10.6,   14.9,   18.0,   20.0,   21.6,   22.7,   24.4,   26.2,   27.1,   27.3,  999.0,  999.0,  999.0,  999.0,    3.2,   -9.4,  999.0,  999.0,  999.0,    5.3,   -2.9,   -9.9,  -10.1,  999.0,  -20.4,  -19.9,  -20.0,  -19.5,  -18.6,  -18.3,  -16.4,  -15.3,  -14.8,  -13.2,  -13.3,  999.0,  999.0,  999.0,  999.0,   44.0,   44.3,   45.1,   45.5,   45.8,   46.4
2016/04/07 08:20,  999.0,    0.5,    1.4,    0.3,   -0.6,   -1.4,   -1.3,   -1.5,   -1.9,   -0.8,   -0.5,   -0.3,   -0.2,  999.0,    3.6,   -3.1,   -3.4,   -4.0,   -3.4,   -3.9,   -3.5,   -2.8,   -2.4,   -2.1,   -1.1,   -0.6,   -0.2,    0.8,    1.6,    2.0,    1.9,    1.3,    1.8,    5.4,    8.6,   11.1,   14.2,   17.4,   20.2,   22.7,   24.7,   26.5,   27.2,   28.7,   28.7,   29.3,   30.0,  999.0,  999.0,  999.0,  999.0,  999.0,  999.0,  -21.6,  -21.4,  -21.6,  -20.8,  -21.1,  -20.0,  -19.7,  -19.8,  -18.3,  -17.2,  -16.3,  -15.6,  -14.4,  -14.7,  -15.0,  999.0,  999.0,  999.0,  999.0,   43.3,   44.4,   44.9,   45.8,   45.6,   45.9,   45.6,   46.5
2016/04/07 08:30,  999.0,    1.0,    0.3,   -0.5,   -0.7,   -0.9,   -0.7,    0.6,    1.4,    2.5,    1.7,    1.2,    1.8,    4.0,    0.4,  999.0,  999.0,   -3.9,   -2.9,   -2.3,   -2.1,   -2.0,   -1.7,   -1.5,   -1.2,   -1.1,   -0.9,   -0.6,   -0.2,   -0.6,   -0.6,   -0.5,    1.8,    5.0,    8.3,   11.3,   14.4,   17.6,   21.1,   23.7,   25.4,   28.2,   28.8,   29.3,   29.5,   29.4,   29.9,   30.3,   30.6,   30.8,  999.0,  999.0,  999.0,  999.0,  -21.2,  -21.1,  -20.9,  -20.9,  999.0,  -19.2,    4.4,    5.5,   20.0,   39.2,   39.8,  999.0,   41.7,   41.9,   41.9,   42.2,   42.4,   42.7,   43.3,   43.7,   44.1,   44.4,   44.5,   45.1,   45.5,  999.0
2016/04/07 08:40,  999.0,    0.5,    0.4,   -0.6,   -0.8,   -1.6,   -1.6,   -1.1,   -1.3,   -0.3,    0.1,   -0.3,    0.3,  999.0,   -3.0,  999.0,  999.0,   -7.8,   -5.3,   -2.6,   -2.6,   -2.5,   -2.3,   -2.2,   -1.9,   -1.8,   -1.2,   -0.9,   -0.5,   -0.3,    0.3,    0.6,    2.1,    5.3,    8.8,   11.9,   15.2,   17.8,   20.4,   23.2,   24.9,   26.9,   27.9,   28.8,   29.2,   29.6,   30.3,   30.6,   31.0,   31.1,   31.2,   32.7,   32.8,   33.2,   33.4,   34.2,   35.5,   36.8,   37.9,   38.2,   38.8,   39.0,   39.3,   40.5,   41.2,   41.3,   41.4,   41.8,   41.5,   42.2,   42.5,   43.8,   43.8,   44.0,   44.0,   44.7,   45.0,   45.4,   45.7,   45.8
2016/04/07 08:50,  999.0,    1.4,    1.1,    0.5,   -0.7,   -1.7,   -2.2,   -2.4,   -1.7,   -0.7,   -0.6,   -0.7,   -0.2,   -0.1,   -5.3,  999.0,  999.0,   -8.3,   -5.3,   -3.8,   -3.6,   -2.9,   -1.8,   -1.2,   -1.1,   -0.8,   -0.2,    0.4,    1.2,    1.7,    2.0,    2.1,    2.7,    3.9,    6.3,   10.5,   14.8,   17.0,   19.1,   22.4,   24.7,   27.0,   28.3,   28.9,   30.5,   30.4,   30.8,   30.8,   31.4,   32.1,   33.3,   33.7,   34.0,   34.4,   36.0,   37.3,   38.6,   39.6,   39.2,   39.8,   40.0,   39.8,   40.7,   40.2,   40.3,   41.6,   41.8,   41.7,   41.8,   42.5,   42.8,   42.9,   43.1,   44.3,   44.4,   45.0,   45.1,   45.8,   45.5,   45.8
2016/04/07 09:00,  999.0,    0.8,    0.4,   -1.1,   -1.9,   -3.3,   -3.8,   -2.5,   -2.2,   -2.6,   -2.3,   -2.0,  999.0,   -2.7,   -6.7,  999.0,  999.0,   -6.2,   -3.0,   -3.4,   -2.0,   -1.0,   -0.4,   -0.2,   -0.1,    0.2,    0.2,    0.6,    0.7,    1.5,    2.0,    2.8,    3.7,    4.4,    6.9,   10.3,   14.1,   17.6,   20.5,   23.7,  999.0,  999.0,  999.0,  999.0,  999.0,  999.0,  999.0,   31.9,   33.3,   34.1,   34.5,   35.6,   36.5,   37.4,   38.5,   40.2,   40.0,   40.2,   39.4,   39.4,   39.8,   40.1,   40.1,   41.5,   40.9,   40.9,   40.9,   41.7,   42.1,   42.7,   43.0,   44.0,   44.6,   44.4,   44.1,   44.1,   44.4,   44.3,   44.6,   44.5
2016/04/07 09:10,  999.0,    0.6,   -0.4,   -2.2,   -4.2,   -6.3,   -4.8,   -5.5,   -5.1,   -5.1,   -5.4,   -4.6,   -4.0,   -4.4,   -3.8,   -2.3,  999.0,  999.0,  999.0,   -2.5,   -0.8,   -1.5,   -1.7,   -2.2,   -1.5,   -1.9,   -1.7,   -1.0,   -0.2,    0.5,    1.0,    2.3,    2.5,    4.0,    6.5,   10.2,   12.8,   15.4,   18.9,   23.0,   26.3,   28.4,   29.2,   29.6,   30.7,   32.3,   32.7,   32.8,   33.3,   33.4,   34.2,   34.3,   34.7,   36.1,   37.4,   38.1,   37.4,   37.3,   38.0,   37.5,   37.3,   38.8,   39.3,   40.4,   40.8,   41.5,   42.0,   42.2,   42.7,   43.2,   43.1,   43.1,   43.4,   44.0,   44.3,   44.2,   44.3,   44.8,   44.3,   44.2
2016/04/07 09:20,  999.0,    0.3,   -1.2,   -3.3,   -4.8,   -5.4,   -5.7,   -5.7,   -5.3,   -4.1,   -3.2,   -2.9,   -3.1,   -2.4,   -0.5,   -1.9,   -1.3,  999.0,   -1.6,   -2.5,   -3.6,   -3.0,   -2.5,   -2.0,   -1.8,   -1.3,   -0.9,   -0.2,   -0.3,    0.2,    1.1,    2.1,    2.6,    6.1,   10.1,   13.3,   15.7,   18.7,   22.4,   25.5,   27.5,   29.8,   30.0,   30.0,   30.3,   30.9,   31.7,   31.9,   32.9,   32.7,   32.5,   33.7,   35.2,   37.4,   37.8,   37.7,   37.9,   37.4,   37.3,   37.3,   39.1,   39.5,   40.4,   41.4,   42.2,   42.1,   42.5,   42.5,   43.1,   43.5,   44.1,   44.5,   44.4,   44.3,   44.9,   44.8,   44.7,   45.8,   44.7,   45.1
2016/04/07 09:30,  999.0,  999.0,   -2.1,   -4.0,   -4.8,   -5.7,   -5.6,   -4.7,   -3.7,   -3.3,   -1.9,   -1.5,   -2.3,   -2.8,   -2.0,  999.0,  999.0,  999.0,  999.0,   -1.8,   -1.5,   -1.5,   -1.5,   -1.6,   -1.5,   -1.2,   -0.7,   -0.1,    0.7,    1.3,    2.1,    4.2,    6.8,   10.3,   13.6,   16.5,   19.3,   22.5,   25.4,   27.5,   28.4,   30.4,   30.6,   30.8,   30.9,   30.0,   30.4,   31.8,   31.9,   31.9,   32.6,   34.5,   36.2,   36.5,   37.1,   36.7,   37.5,   37.2,   36.5,   37.4,   38.5,   39.6,   40.4,   41.1,   42.7,   42.6,   43.6,   43.3,   43.9,   43.4,   43.6,   44.3,   44.2,   44.1,   44.2,   44.5,   44.5,   44.5,   44.5,   45.6
2016/04/07 09:40,  999.0,  999.0,   -3.9,   -6.0,   -6.6,   -6.6,   -5.8,   -4.2,   -4.2,   -4.1,   -3.9,   -4.0,   -3.3,   -2.5,    0.5,   -1.7,  999.0,  999.0,  999.0,   -2.4,   -2.5,   -2.6,   -2.2,   -1.6,   -1.1,   -1.1,   -1.4,   -1.0,   -1.0,   -0.7,    3.5,    6.0,    9.0,   12.2,   15.0,   17.3,   19.6,   21.9,   25.0,   26.7,   28.4,   29.5,   30.0,   29.9,   30.1,   29.8,   31.8,   32.3,   34.9,   35.6,   36.8,   37.1,   37.9,   37.8,   38.4,   37.1,   37.0,   37.6,   37.6,   38.2,   39.1,   40.0,   41.5,   41.5,   42.3,   43.0,   42.9,   43.2,   43.7,   44.1,   44.5,   44.8,   44.6,   43.7,   44.4,   43.5,   43.7,   43.6,   42.8,   44.2
2016/04/07 09:50,  999.0,   -1.9,   -5.7,   -7.0,   -8.1,   -8.0,   -7.4,   -6.2,   -4.9,   -3.5,   -2.8,   -3.6,   -3.6,   -1.3,   -2.4,   -2.4,   -0.5,  999.0,   -0.4,   -0.0,    0.5,    1.0,    0.8,    0.1,   -0.2,   -0.2,    0.0,    0.3,    1.2,    2.7,    5.7,    8.7,   12.3,   15.5,   18.2,   20.8,   22.9,   23.9,   27.1,   28.7,   29.4,   30.3,   30.9,   31.2,   30.6,   30.5,   33.3,   35.0,   36.1,   38.0,   39.0,   38.5,   38.7,   38.4,   38.4,   38.5,   38.7,   38.0,   38.5,   38.6,   39.8,   41.7,   41.2,   42.0,   42.3,   43.1,   43.1,   43.1,   43.1,   42.5,   41.8,   42.1,   41.8,   42.0,   41.9,   42.6,   42.6,   42.4,   42.6,   42.8
2016/04/07 10:00,  999.0,  999.0,  999.0,   -9.6,   -9.9,   -8.5,   -7.7,   -7.3,   -6.5,   -5.9,   -4.7,   -4.9,   -4.3,   -3.5,   -3.0,   -0.4,    1.6,  999.0,   -1.4,    0.9,    1.8,    0.9,    0.3,   -0.9,   -0.8,    0.2,    0.6,    1.9,    5.0,    7.8,   10.5,   13.6,   16.8,   19.4,   22.2,   25.0,   26.6,   29.2,   29.6,   30.5,   31.6,   31.6,   32.4,   34.2,   33.1,   32.1,   32.3,   34.0,   36.0,   37.6,   38.0,   38.3,   38.7,   38.3,   38.2,   38.3,   39.1,   39.7,   40.0,   40.6,   41.1,   41.7,   41.6,   41.6,   40.9,   41.8,   42.4,   42.1,   42.3,   43.3,   43.4,   43.9,   44.0,   43.6,   43.9,   44.3,   44.0,   44.0,   44.4,   44.6
2016/04/07 10:10,  999.0,   -0.9,   -2.0,   -1.5,    0.4,    0.6,    0.3,   -0.1,   -1.2,   -1.2,   -1.8,   -1.8,   -2.6,   -0.6,    1.1,    0.4,   -0.5,   -1.4,   -3.2,   -3.7,   -2.9,   -1.9,   -1.2,   -0.5,    0.2,    1.1,    2.0,    4.8,    8.2,   11.1,   13.6,   16.3,   17.7,   19.8,   23.1,   25.2,   27.6,   29.3,   30.6,   31.7,   32.5,   32.7,   33.8,   33.3,   34.0,   33.6,   33.0,   32.7,   33.8,   35.2,   36.4,   36.3,   36.8,   37.2,   37.0,   37.1,   38.1,   38.7,   39.3,   40.5,   40.5,   42.2,   43.2,   43.7,   43.8,   44.2,   44.5,   44.3,   44.1,   44.0,   44.9,   44.4,   44.5,   45.3,   44.5,   44.3,   44.7,   44.8,   44.9,   44.3
2016/04/07 10:20,  999.0,   -1.6,   -1.1,   -1.4,   -2.3,   -3.3,   -3.8,   -3.4,   -3.1,   -3.7,   -3.4,   -2.5,   -2.4,   -0.1,   -0.9,   -2.9,  999.0,   -4.6,   -3.4,   -3.0,   -3.0,   -2.9,   -2.5,   -1.6,   -0.9,   -0.2,    1.3,    4.5,    8.6,   11.8,   14.7,   17.2,   19.1,   19.7,   22.0,   23.9,   25.9,   28.2,   29.1,   30.1,   31.2,   31.5,   32.6,   32.3,   32.4,   31.8,   31.0,   30.7,   32.6,   33.6,   35.8,   35.9,   35.9,   36.4,   37.3,   38.7,   39.4,   39.5,   41.3,   41.4,   42.2,   43.3,   43.0,   43.2,   44.1,   44.2,   45.0,   44.8,   44.0,   44.2,   44.5,   44.3,   44.1,   44.4,   45.2,   45.0,   44.4,   44.1,   44.6,   44.5
2016/04/07 10:30,  999.0,   -1.4,   -1.4,   -3.5,   -5.3,   -5.9,   -4.5,   -3.1,   -2.6,   -2.5,   -2.9,   -2.9,   -2.1,   -2.8,  999.0,  999.0,  999.0,   -4.9,   -2.7,   -0.8,   -0.5,   -0.8,   -0.8,   -0.8,   -0.2,    0.3,    2.0,    5.7,    9.2,   12.4,   15.0,   17.5,   19.6,   22.1,   24.2,   26.4,   28.2,   29.5,   30.5,   31.2,   31.1,   31.7,   31.6,   32.2,   31.9,   32.0,   31.8,   32.4,   33.4,   34.5,   35.5,   36.3,   37.8,   38.6,   38.7,   38.7,   39.7,   40.7,   41.4,   41.6,   42.2,   43.2,   43.5,   43.8,   42.9,   44.3,   43.9,   42.9,   43.2,   43.9,   43.3,   43.3,   43.9,   44.2,   44.0,   43.5,   44.0,   43.7,   43.6,   44.2
2016/04/07 10:40,  999.0,   -1.6,   -3.2,   -5.2,   -6.2,   -6.2,   -5.9,   -4.5,   -4.5,   -4.5,   -4.1,   -3.5,   -3.6,   -2.4,   -0.2,   -1.6,  999.0,  999.0,   -3.2,   -1.2,   -1.4,   -1.1,   -0.7,   -0.3,    0.5,    0.8,    4.6,    7.8,   11.2,   14.5,   16.6,   18.5,   20.4,   23.1,   25.2,   27.6,  999.0,   31.7,   32.3,   32.8,   32.1,   32.0,   32.3,   33.2,   34.1,   33.6,   34.0,   34.6,   35.2,   36.1,   37.6,   38.7,   39.6,   39.9,   39.8,   40.0,   40.7,   40.9,   41.8,   42.9,   43.1,   42.5,   43.3,   43.6,   43.4,   43.5,   44.0,   43.2,   43.2,   42.9,   43.0,   43.4,   43.6,   43.3,   43.7,   44.0,   44.1,   43.9,   43.2,   42.5
2016/04/07 10:50,  999.0,  999.0,   -3.8,   -5.6,   -6.6,   -7.1,   -7.2,   -7.1,   -6.3,   -5.5,   -5.0,   -4.7,   -3.6,   -1.8,   -1.5,  999.0,  999.0,  999.0,   -1.8,   -1.1,   -0.5,   -0.1,    0.4,    2.0,    4.0,    6.4,    8.2,   10.6,   14.1,   15.8,   17.6,   20.2,   22.2,   24.0,   28.0,   29.7,   31.5,   31.1,   31.9,   31.9,   31.7,   31.8,   33.9,   35.4,   36.1,   36.5,   36.8,   37.9,   37.9,   38.8,   39.6,   40.2,   40.2,   40.8,   40.7,   40.3,   40.8,   40.7,   41.6,   43.2,   43.2,   43.8,   44.1,   44.3,   43.8,   44.3,   44.7,   30.9,   16.8,   29.5,   16.0,   43.2,   43.2,   43.2,   43.5,   42.2,   42.0,   42.3,   42.4,   42.7
2016/04/07 11:00,  999.0,   -4.6,   -6.3,   -7.0,   -8.0,   -7.7,   -7.7,   -7.4,   -5.6,   -3.6,   -2.9,   -2.9,   -1.9,    0.2,    1.1,    0.5,    1.4,    1.4,    1.1,    1.6,    2.5,    4.1,    4.5,    6.0,    7.6,   10.3,   11.4,   14.1,   16.6,   18.8,   21.4,   24.3,   26.0,   27.6,   28.1,   30.5,   32.9,   32.5,   32.9,   32.0,   31.8,   32.8,   34.0,   34.9,   36.5,   36.9,   37.8,   38.7,   39.8,   39.9,   40.6,   27.6,   40.7,   41.0,   41.0,   41.9,   42.4,   43.4,   43.3,  999.0,  999.0,   17.7,    8.4,  -10.6,   -0.1,    2.4,    2.5,  -10.8,  -11.3,  -11.5,  -11.9,  -12.1,  -12.0,    2.5,    1.8,    6.4,    2.0,    5.8,    0.2,    6.6
2016/04/07 11:10,  999.0,   -5.8,   -7.1,   -7.8,   -7.8,   -8.7,   -8.0,   -6.8,   -5.1,   -4.0,   -3.8,   -2.7,   -1.1,   -0.5,   -0.5,   -1.1,   -1.3,   -0.9,   -1.6,    1.7,    1.4,    2.7,    3.2,    5.4,    8.2,   11.5,   15.0,   16.9,   18.9,   20.3,   -4.1,   -1.6,   -7.3,   -8.6,    4.0,    4.7,   21.4,   32.9,   32.9,   34.4,   35.4,   36.7,   36.8,   -2.4,  -16.7,   10.7,   18.5,   39.7,   29.1,   29.1,   24.0,   11.9,   26.1,   12.3,   13.5,   14.3,    0.9,   16.2,   42.9,   29.5,   42.2,  999.0,   23.1,   14.8,   23.9,    6.2,  -11.6,    4.8,  -11.6,  -11.4,  -11.8,  -12.7,  -11.1,  -11.1,  -11.4,    0.2,    2.0,  999.0,  999.0,  -11.3
2016/04/07 11:20,  999.0,   -7.0,   -8.2,   -8.4,   -9.4,   -9.0,   -8.5,   -6.8,   -6.9,   -5.7,   -3.9,   -2.6,   -2.8,   -1.7,   -1.3,   -2.3,   -3.0,   -1.1,   -1.1,    1.0,    2.5,    3.5,    6.4,    9.6,   13.4,   14.7,   16.9,   19.2,   -5.3,   24.0,  -11.1,   -5.1,    3.1,    3.9,   12.8,   31.6,   32.0,   31.4,   32.8,   34.1,   34.8,   35.3,   36.5,   38.4,   38.6,   39.4,   39.8,   39.3,   39.0,   39.1,   39.1,   39.7,   39.3,   39.5,   39.7,   41.0,   41.6,   41.6,   42.4,   43.2,   43.4,   43.1,   43.0,   43.4,   43.8,   43.6,   42.7,   41.9,   42.0,   42.8,   43.2,   42.5,   43.4,   44.2,   44.8,   44.1,   44.2,   43.9,   44.0,   44.3
2016/04/07 11:30,  999.0,   -7.2,   -8.6,   -9.3,   -8.3,   -8.3,   -7.6,   -7.2,   -5.8,   -5.0,   -4.4,   -2.9,   -2.4,   -2.1,   -1.6,   -0.5,    0.4,    0.6,    0.7,    1.8,    3.0,    3.8,    6.4,  999.0,  999.0,  999.0,  999.0,  999.0,  -31.7,  -29.6,  -27.0,  -26.1,  -24.5,  -23.4,  -22.0,  -19.9,  -20.6,  999.0,  999.0,   33.0,   33.1,   34.6,   35.7,   36.8,   37.5,   38.3,   39.3,   40.5,   40.4,   40.8,   43.5,   41.3,   41.3,   40.4,   39.9,   39.4,   40.0,   39.9,   40.2,   40.6,   40.8,   40.3,   40.6,   41.4,   42.3,   42.3,   42.1,   41.9,   41.7,   41.5,   41.8,   41.9,   43.0,   44.2,   44.0,   43.0,   43.9,   43.6,   43.7,   44.4
2016/04/07 11:40,  999.0,   -6.2,   -6.6,   -7.1,   -7.6,   -7.6,   -6.9,   -6.2,   -6.2,   -4.9,   -4.1,   -3.1,   -2.6,   -2.4,   -1.9,   -2.2,   -1.6,   -1.9,    0.2,    0.7,  999.0,  999.0,  999.0,  999.0,  -39.5,  -39.1,  -37.6,  -37.8,  -35.8,  -32.1,  -29.0,  -27.7,  -24.6,  -23.5,  -22.7,  -22.1,  999.0,  999.0,  999.0,  999.0,  999.0,   34.9,   35.5,   37.4,   37.9,   39.2,   40.1,   40.4,   41.1,   42.6,   43.6,   43.8,   43.2,   41.8,   41.1,   41.4,   41.0,   41.5,   41.5,   41.4,   41.1,   40.9,   41.8,   42.2,   41.9,   41.6,   41.3,   40.5,   40.0,   40.1,   40.7,   41.2,   40.9,   40.7,   41.6,   42.1,   42.7,   42.5,   43.3,   43.4
2016/04/07 11:50,  999.0,   -4.5,   -5.4,   -5.6,   -5.2,   -5.6,   -5.7,   -5.9,   -5.8,   -5.8,   -4.5,   -2.7,   -2.0,   -1.8,   -1.5,   -0.6,    0.4,    1.7,    2.4,    2.6,    2.9,  999.0,  999.0,  999.0,  999.0,  -41.8,  -38.9,  -36.4,  -33.4,  -32.5,  -28.8,  -25.2,  999.0,  -24.0,  -22.4,  999.0,   33.1,   32.6,   32.2,   33.1,   34.4,   34.8,   37.5,   38.4,   39.7,   40.2,   40.6,   40.3,   40.6,   40.9,   41.4,   41.1,   41.4,   40.9,   40.6,   40.5,   40.2,   40.4,   40.7,   40.6,   40.2,   40.0,   39.9,   41.1,   41.3,   40.5,   41.4,   40.4,   40.8,   40.9,   41.4,   41.3,   41.6,   41.8,   41.6,   41.3,   41.7,   41.4,   41.1,   42.8
2016/04/07 12:00,  999.0,   -4.6,   -4.8,   -4.8,   -5.1,   -5.8,   -6.1,   -6.1,   -5.6,   -5.5,   -4.7,   -3.8,   -3.4,   -2.3,   -1.0,    0.1,   -0.4,    0.7,    2.7,    2.5,  999.0,  999.0,  999.0,  999.0,  999.0,  -41.9,  -39.8,  999.0,  -33.8,  -33.3,  -30.8,  -28.1,  999.0,  999.0,  999.0,  999.0,   31.8,   32.2,   33.5,   35.4,   36.7,   37.2,   37.1,   38.3,   38.3,   39.1,   39.2,   38.7,   38.7,   38.7,   38.8,   39.1,   38.8,   39.2,   39.2,   38.9,   38.3,   38.6,   38.9,   38.3,   38.0,   37.9,   37.7,   39.1,   39.4,   40.1,   40.0,   40.3,   40.4,   40.5,   41.3,   41.6,   41.8,   41.4,   41.2,   40.9,   40.5,   40.6,   40.6,   40.8
2016/04/07 12:10,  999.0,   -3.7,   -4.1,   -4.7,   -4.9,   -5.4,   -5.8,   -5.7,   -6.1,   -5.7,   -5.1,   -4.9,   -3.9,   -3.3,   -2.7,   -0.2,  999.0,  999.0,  999.0,  999.0,  -51.7,  -51.8,  -51.1,  -50.9,  -46.7,  -42.5,  -38.0,  -37.3,  999.0,  -31.8,  -30.2,  -28.2,  -25.5,  999.0,  999.0,  999.0,   31.9,   32.9,   34.0,  999.0,   36.4,   36.0,   36.4,   36.5,   36.1,   36.7,   36.9,   37.9,   38.1,   37.5,   38.2,   38.0,   37.7,   38.8,   39.3,   39.5,   39.2,   38.4,   38.1,   38.0,   38.0,   38.5,   38.6,   39.0,   38.9,   39.8,   40.2,   40.2,   40.4,   40.5,   40.7,   40.0,   39.7,   39.8,   39.7,   40.0,   41.2,   40.8,   40.2,   40.4
2016/04/07 12:20,  999.0,   -2.6,   -3.3,   -3.6,   -4.3,   -5.2,   -6.2,   -6.2,   -6.5,   -6.4,   -6.1,   -5.6,   -4.5,   -4.1,   -3.1,   -1.5,   -0.1,  999.0,  999.0,  999.0,  999.0,  -51.5,  -49.5,  -45.9,  -44.8,  -43.3,  -41.6,  -38.8,  -36.0,  -30.6,  -29.1,  -29.1,  -26.2,  -23.7,  -24.5,  -24.1,  -22.6,  -21.9,  -21.5,  -20.0,  999.0,  999.0,  999.0,  999.0,   34.9,   34.7,   34.8,   35.8,   36.1,   36.6,   37.7,   39.0,   40.2,   40.1,   39.7,   39.5,   39.3,   39.2,   38.1,   37.6,   38.0,   38.9,   39.6,   40.8,   41.3,   40.6,   41.1,   40.6,   40.4,   40.6,   40.4,   40.4,   39.7,   39.9,   40.8,   40.7,   40.4,   40.0,   39.7,   41.6
2016/04/07 12:30,  999.0,   -2.1,   -2.5,   -3.3,   -4.4,   -5.2,   -4.8,   -4.3,   -4.7,   -5.3,   -5.1,   -4.8,   -4.2,   -4.0,   -3.4,   -1.3,  999.0,  999.0,  999.0,  999.0,  -53.7,  -53.5,  -51.6,  -49.6,  -45.9,  -43.5,  -39.8,  999.0,  -35.7,  -31.1,  -30.8,  -29.8,  -27.7,  -26.1,  -24.9,  -21.9,  -22.0,  -21.6,  -21.6,  -20.5,  999.0,  999.0,  999.0,  999.0,   34.3,   34.6,   35.9,   36.6,   37.1,   38.2,   38.7,   38.2,   38.9,   38.0,   37.0,   37.4,   37.6,   38.1,   39.1,   39.6,   38.8,   39.3,   40.0,   41.0,   41.0,   41.3,   41.2,   40.9,   40.5,   39.5,   39.4,   39.5,   39.5,   39.1,   38.6,   38.7,   39.6,   40.2,   40.4,   41.8
2016/04/07 12:40,  999.0,   -1.6,   -2.4,   -2.9,   -3.2,   -3.9,   -3.7,   -4.2,   -4.3,   -4.1,   -4.0,   -3.6,  999.0,  -28.8,  -55.0,  -55.6,  -54.1,  -52.5,  -52.9,  -53.3,  -52.5,  -51.8,  -50.8,  -48.2,  -45.8,  -44.1,  -40.3,  -34.2,  -34.1,  999.0,  -30.8,  -28.2,  -26.3,  -24.3,  -22.8,  -21.6,  999.0,  999.0,  999.0,  999.0,  999.0,  999.0,   36.4,   36.2,   36.9,   36.9,   37.8,   38.5,   38.3,   38.2,   38.0,   37.8,   37.8,   37.7,   38.1,   37.7,   38.2,   38.9,   39.0,   39.1,   38.6,   38.2,   38.6,   38.8,   39.1,   38.8,   39.1,   38.4,   39.0,   39.2,   39.2,   39.4,   39.7,   39.2,   39.1,   39.5,   39.4,   39.1,   38.9,   38.6
2016/04/07 12:50,  999.0,   -2.7,  999.0,   -1.9,   -2.8,   -3.4,   -3.2,   -3.9,   -3.6,  -20.2,  -31.5,  -23.9,  999.0,  999.0,  999.0,  999.0,  999.0,  -56.7,  -55.1,  -53.7,  -53.1,  -53.0,  -51.1,  -49.3,  -47.6,  -43.2,  -40.2,  999.0,  -35.5,  -34.2,  -32.7,  -30.9,  -27.1,  -26.3,  -23.7,  999.0,  999.0,  999.0,   16.8,   34.8,   35.2,   36.0,   36.4,   37.1,   37.5,   38.6,   38.8,   39.1,   39.1,   39.4,   40.2,   40.1,   39.8,   39.9,   39.3,   39.7,   39.5,   39.2,   39.4,   39.8,   39.2,   38.9,   38.5,   39.0,   39.0,   39.4,   39.9,   39.7,   39.6,   39.3,   39.6,   40.2,   39.9,   40.6,   40.6,   40.7,   40.5,   40.2,   40.5,   40.1
2016/04/07 13:00,  999.0,   -1.7,   -1.3,   -2.1,   -2.8,   -3.0,   -3.2,   -3.4,   -3.5,   -3.8,   -4.8,   -4.4,   -5.5,   -5.9,   -5.0,   -3.1,   -3.2,  999.0,  999.0,  -53.5,  999.0,  -52.2,  -50.4,  -47.9,  -43.6,  -41.8,  -39.9,  999.0,  -35.9,  -35.4,  -34.5,  -31.0,  -31.0,  -24.6,  999.0,  999.0,  999.0,  999.0,   30.1,   30.4,   30.8,   31.4,   32.2,   32.1,   34.2,   35.2,   35.7,   36.2,   37.4,   38.3,   38.6,   38.6,   38.6,   38.2,   38.5,   39.2,   39.4,   40.2,   40.5,   40.6,   41.0,   40.1,   40.4,   41.1,   41.5,   42.0,   42.4,   41.8,   41.7,   41.8,   41.8,   41.3,   41.5,   41.4,   41.3,   41.8,   42.1,   42.6,   43.5,   42.9
2016/04/07 13:10,  999.0,   -1.5,   -1.4,   -2.2,   -3.0,   -3.4,   -4.1,   -4.3,   -5.0,   -5.4,   -5.1,   -4.5,   -4.0,   -3.5,  999.0,  999.0,  999.0,  999.0,  -52.6,  -50.9,  -49.8,  -49.2,  -48.2,  -46.4,  999.0,  -43.1,  999.0,  999.0,  999.0,  999.0,  999.0,  999.0,  999.0,  -25.2,  999.0,  999.0,  999.0,  999.0,   32.7,   32.8,   32.5,   32.8,   33.4,   34.3,   35.7,   36.5,   37.2,   37.2,   36.6,   36.5,   36.6,   36.9,   36.7,   37.0,   37.1,   37.3,   37.0,   38.0,   38.8,   38.8,   39.0,   38.8,   38.7,   40.3,   40.5,   41.4,   41.2,   41.4,   41.5,   41.5,   41.3,   40.8,   40.8,   40.9,   41.5,   41.2,   41.1,   40.9,   40.6,   42.1
2016/04/07 13:20,  999.0,   -1.1,   -1.6,   -2.4,   -2.7,   -3.3,   -3.8,   -4.0,   -4.2,   -4.5,   -4.7,   -5.2,   -3.6,  999.0,  999.0,  999.0,  999.0,  -52.9,  -53.1,  -52.8,  -52.6,  -51.5,  -49.2,  -47.7,  -45.3,  -41.9,  -40.1,  -39.5,  -36.2,  -34.5,  -32.0,  -32.0,  -30.7,  -26.5,  999.0,  999.0,  999.0,  999.0,  999.0,   32.1,   32.6,   32.0,   32.1,   32.4,   33.3,   34.0,   34.6,   34.6,   35.6,   36.5,   36.7,   36.6,   37.2,   37.7,   38.1,   37.9,   37.9,   39.0,   38.7,   38.9,   38.5,   38.3,   38.2,   38.7,   39.0,   39.6,   39.6,   39.8,   39.8,   39.5,   39.4,   40.4,   40.6,   40.4,   40.4,   40.0,   40.8,   38.9,   40.2,  999.0
2016/04/07 13:30,  999.0,   -1.7,   -2.0,   -2.2,   -2.6,   -3.0,   -3.6,   -3.9,   -4.2,   -5.0,   -5.1,   -5.8,  999.0,  999.0,  999.0,  -50.7,  -53.4,  -55.0,  -54.8,  -52.4,  -51.4,  -50.6,  -48.3,  -46.7,  -43.2,  -41.2,  -39.3,  999.0,  999.0,  999.0,  -35.0,  -32.8,  -30.6,  999.0,  999.0,  999.0,  999.0,  999.0,   32.4,   32.0,   31.5,   31.3,   32.3,   34.0,   34.9,   35.6,   36.2,   36.3,   36.7,   37.2,   37.2,   37.7,   38.6,   38.7,   39.0,   39.1,   40.0,   40.0,   40.3,   39.4,   39.6,   39.6,   38.9,   39.4,   39.8,   39.6,   39.8,   39.6,   39.8,   40.3,   39.5,   39.6,   39.3,   39.7,   39.4,   40.2,   39.2,   39.8,   40.1,   39.7
2016/04/07 13:40,  999.0,   -0.7,   -0.2,   -1.5,   -2.5,   -2.9,   -3.4,   -3.6,   -4.5,   -4.8,   -4.9,  999.0,  999.0,  999.0,  -55.7,  -55.5,  -55.2,  -54.6,  -55.1,  -54.7,  -52.2,  -50.1,  -48.9,  -46.4,  -43.1,  -44.0,  -40.9,  -35.5,  -38.7,  999.0,  -32.9,  -29.8,  -26.7,  999.0,  999.0,  999.0,  999.0,  999.0,   31.6,   32.1,   33.7,   35.3,   36.3,   37.2,   36.8,   37.5,   38.3,   39.1,   39.2,   39.5,   39.4,   39.4,   39.4,   40.0,   40.6,   40.6,   40.9,   39.9,   40.0,   40.3,   40.6,   40.2,   40.2,   40.9,   40.0,   40.0,   40.3,   39.8,   39.3,   38.9,   39.1,   38.8,   38.7,   39.3,   39.7,   39.5,   40.1,   40.2,   39.9,  999.0
2016/04/07 13:50,  999.0,   -0.1,    0.7,   -0.8,   -1.9,   -2.9,   -3.7,   -3.5,   -4.0,   -3.9,   -3.7,  999.0,  999.0,  -56.0,  -54.6,  -54.9,  -54.2,  -52.8,  -52.3,  -52.6,  -50.5,  -50.1,  -48.3,  -45.8,  -43.7,  -41.3,  -38.9,  -36.2,  -33.9,  999.0,  999.0,  999.0,  999.0,  999.0,  999.0,  999.0,  999.0,   30.9,   31.3,   32.2,   32.8,   33.5,   34.4,   35.3,   36.3,   37.4,   38.7,   39.6,   40.1,   41.0,   42.0,   41.8,   41.6,   41.1,   40.8,   40.8,   39.3,   39.0,   39.6,   39.8,   39.7,   39.4,   39.7,   40.0,   39.6,   39.5,   39.4,   38.7,   38.1,   37.7,   38.0,   38.1,   39.1,   38.9,   38.9,   39.0,   38.3,   38.6,   38.7,  999.0
2016/04/07 14:00,  999.0,   -0.7,   -0.1,   -0.5,   -1.4,   -2.0,   -2.8,   -2.9,   -3.1,   -3.1,   -1.7,  999.0,  999.0,  -58.0,  -58.9,  -58.3,  -57.3,  -57.3,  -56.1,  -53.9,  -52.9,  -51.6,  -49.4,  -45.4,  -42.1,  -40.2,  -39.1,  -35.7,  -36.0,  999.0,  999.0,  999.0,  999.0,  999.0,  999.0,  999.0,  999.0,  999.0,   31.9,   32.4,   32.9,   34.8,   36.3,   37.6,   38.3,   39.1,   39.8,   40.2,   41.1,   42.1,   42.0,   41.6,   41.3,   41.0,   41.3,   41.2,   40.0,   39.8,   40.3,   40.3,   40.2,   39.7,   39.5,   40.7,   40.5,   40.5,   41.0,   41.1,   40.5,   40.2,   39.9,   39.8,   39.3,   39.2,   39.5,   39.6,   39.2,   39.1,   39.2,   39.5
2016/04/07 14:10,  999.0,    0.7,  999.0,   -0.3,   -0.7,   -1.2,   -2.0,   -2.7,   -3.4,  999.0,  999.0,  999.0,  999.0,  999.0,  999.0,  999.0,  -56.5,  -55.8,  -53.3,  -51.8,  -49.9,  -48.7,  -46.9,  -43.6,  -42.0,  -40.6,  -40.6,  -39.3,  -37.9,  999.0,  999.0,  999.0,  999.0,  -27.7,  999.0,  999.0,  999.0,  999.0,  999.0,   34.8,   34.7,   36.1,   37.3,   38.4,   39.1,   39.7,   40.1,   40.7,   40.7,   40.0,   39.9,   40.2,   40.2,   40.7,   42.1,   42.1,   42.2,   42.8,   43.5,   43.1,   43.1,   43.5,   42.6,   42.2,   42.2,   43.1,   42.4,   41.3,   41.1,   40.8,   40.3,   40.3,   40.2,   39.4,   39.3,   39.2,   40.6,   40.2,   40.3,   40.5
2016/04/07 14:20,  999.0,  999.0,    0.9,    0.6,    0.1,   -0.5,   -1.6,   -2.5,   -4.3,   -4.7,   -5.7,   -6.9,   -6.9,  999.0,  999.0,  999.0,  999.0,  -54.8,  -53.1,  -51.6,  -51.5,  -49.9,  -47.9,  -45.2,  -42.2,  -40.3,  -39.4,  -36.1,  -36.8,  -33.0,  -33.0,  -28.7,  -28.4,  -27.0,  -22.8,  999.0,  999.0,  999.0,   34.8,   35.5,   35.9,   36.7,   37.6,   38.5,   38.8,   38.9,   39.9,   41.5,   40.2,   40.0,   39.9,   39.3,   39.9,   41.7,   42.7,   44.4,   45.3,   45.2,   45.2,   44.8,   44.6,   44.1,   43.3,   43.0,   42.1,   42.3,   42.3,   41.4,   40.8,   40.4,   39.7,   39.7,   39.9,   39.7,   39.6,   40.3,   40.3,   40.9,   41.0,   40.7
2016/04/07 14:30,  999.0,   -0.1,    0.4,    0.7,    1.0,   -0.0,   -1.8,   -2.9,   -4.0,   -5.2,   -6.1,   -6.7,   -6.6,   -7.0,   -5.2,   -2.2,   -1.1,  999.0,    2.2,  -14.2,  999.0,  999.0,  999.0,  -45.4,  -41.1,  -39.4,  -36.1,  -35.2,  -35.0,  -31.6,  -29.0,  -27.6,  -25.5,  999.0,  999.0,  999.0,  999.0,   34.7,   35.9,   37.6,   37.5,   38.4,   39.2,   39.8,   40.1,   40.8,   41.2,   41.4,   40.4,   40.7,   41.0,   41.7,   42.2,   42.9,   43.7,   44.4,   44.5,   44.9,   44.1,   43.8,   43.5,   44.7,   45.0,   44.9,   44.3,   43.3,   42.9,   42.7,   41.8,   40.9,   40.4,   39.9,   40.0,  999.0,   40.3,   40.6,   40.4,   39.9,   39.8,  999.0
2016/04/07 14:40,  999.0,    1.7,    1.9,    2.0,    0.7,   -0.6,   -1.7,   -3.2,   -4.8,   -6.0,   -6.1,   -6.5,   -5.6,   -5.5,   -3.8,  999.0,  -40.0,  -36.4,  -40.9,  -39.4,  -48.8,  -48.5,  -46.5,  -45.2,  -44.5,  -41.5,  -40.4,  -37.6,  -34.9,  -33.2,  -32.0,  999.0,  -26.7,  999.0,  999.0,  999.0,   32.0,   33.1,   33.2,   34.2,   35.1,   35.8,   36.9,   37.8,   38.9,   40.0,   40.9,   41.7,   42.4,   42.9,   43.8,   43.7,   43.5,   43.5,   43.2,   43.5,   42.7,   42.9,   42.1,   42.5,   43.4,   43.6,   43.2,   43.1,   41.8,   41.2,   40.8,   40.5,   40.3,   39.9,  999.0,  999.0,  999.0,  999.0,  999.0,  999.0,  999.0,  999.0,  999.0,  999.0
2016/04/07 14:50,  999.0,    2.1,    2.7,    1.8,    1.5,   -1.5,   -4.8,   -6.7,   -6.2,   -6.5,   -7.5,   -6.0,   -4.9,   -4.0,    1.0,  -27.0,  999.0,  -52.0,  999.0,  -51.2,  -52.2,  -51.0,  -47.9,  -46.4,  -43.6,  -41.7,  -39.0,  -35.0,  -36.0,  -33.6,  -30.3,  -27.9,  -25.8,  -25.2,  -26.8,  -25.6,  999.0,  999.0,  999.0,   31.2,   31.3,   32.4,   33.7,   35.2,   36.5,   37.4,   37.9,   39.3,   40.5,   42.5,   43.0,   43.1,   42.8,   41.8,   41.5,   41.8,   41.8,   41.4,   41.5,   41.1,   41.0,   41.8,   42.8,   30.6,  999.0,  999.0,  999.0,  999.0,  999.0,  999.0,  999.0,  999.0,  999.0,  999.0,  999.0,  999.0,  999.0,  999.0,  999.0,  999.0
2016/04/07 15:00,  999.0,    1.4,    2.5,    2.2,    1.0,   -0.7,   -2.8,   -4.3,   -4.7,   -4.8,   -5.4,   -5.0,   -3.7,   -0.7,    2.3,    3.4,  999.0,    4.7,    4.5,  -28.7,  -49.3,  -47.4,  -48.3,  -46.5,  -46.4,  999.0,  -41.1,  -37.7,  -35.7,  -34.3,  -32.7,  -30.1,  -29.5,  -24.6,  999.0,  999.0,  999.0,  999.0,   32.3,   33.1,   33.7,   34.4,   35.0,   35.5,   35.9,   37.5,   38.5,   39.3,   40.0,   41.2,   40.7,   40.8,   40.2,   39.3,   39.2,   38.7,   38.9,   39.2,   41.2,   39.6,   40.9,   38.5,   39.7,   38.0,   39.8,   41.2,   40.3,   41.6,   42.3,   41.1,   40.1,  999.0,  999.0,  999.0,  999.0,  999.0,  999.0,  999.0,  999.0,  999.0
2016/04/07 15:10,  999.0,    2.1,    3.7,    3.6,    1.5,   -0.5,   -2.7,   -4.1,   -4.4,   -5.0,   -5.3,   -5.0,   -2.5,   -0.7,    0.2,  999.0,  999.0,  -16.1,  999.0,  -24.9,  999.0,  999.0,  -47.9,  -45.9,  -43.1,  -40.8,  -40.6,  -39.7,  -36.5,  -35.8,  -34.0,  -32.3,  -31.1,  -27.9,  999.0,  999.0,  999.0,   32.4,   32.2,   33.4,   34.7,   35.6,   36.5,   36.8,   38.3,   39.5,   40.0,   39.3,   39.2,   39.6,   39.0,   39.2,   38.9,   38.8,   39.2,   39.7,   41.5,   40.4,   40.9,   39.9,   38.6,   39.3,   38.8,   39.2,   38.9,   40.6,   40.8,   40.5,   40.4,   41.7,   41.8,   40.1,   41.7,  999.0,  999.0,  999.0,  999.0,  999.0,  999.0,  999.0
2016/04/07 15:20,  999.0,    1.7,    2.8,    2.7,    0.7,   -1.9,   -3.1,   -4.8,   -4.9,   -4.9,   -4.6,   -5.1,  999.0,  999.0,  999.0,  -51.8,  -52.2,  -53.0,  -52.9,  -52.8,  -51.4,  -49.8,  -47.9,  -44.8,  -42.8,  -41.2,  -38.2,  -37.8,  -36.8,  -35.4,  -32.7,  -31.0,  -30.1,  -28.9,  999.0,  999.0,  999.0,  999.0,   34.4,   35.6,   36.5,   37.1,   37.4,   38.7,   39.7,   40.2,   39.7,   39.1,   38.5,   37.7,   38.1,   37.8,   38.2,   39.0,   39.5,   40.3,   41.0,   40.4,   40.3,   39.6,   39.0,   38.9,   39.5,   39.5,   39.3,   39.2,   39.2,   39.1,   39.3,   38.3,   38.8,   39.5,  999.0,   40.0,  999.0,   41.0,  999.0,  999.0,  999.0,  999.0
2016/04/07 15:30,  999.0,    1.7,    3.2,    2.1,    0.5,   -2.0,   -2.0,   -3.0,   -3.1,   -3.3,   -3.4,   -2.8,   -1.8,    0.1,    1.0,    0.8,   -0.7,    0.3,  -36.4,  -53.9,  -52.0,  -50.2,  -48.9,  -43.2,  -43.2,  -40.3,  -37.9,  -36.0,  -35.4,  -35.5,  -31.6,  999.0,  -30.3,  -24.8,  999.0,  999.0,  999.0,   35.0,   34.4,   35.3,   35.6,   36.4,   37.7,   38.5,   39.4,   40.3,   40.7,   40.7,   40.5,   40.5,   39.8,   40.1,   41.2,   40.9,   40.5,   40.3,   39.6,   39.6,   39.0,   39.6,   39.6,   38.7,   39.6,   38.9,   38.9,   40.1,   40.2,  999.0,   39.6,  999.0,  999.0,  999.0,  999.0,  999.0,  999.0,  999.0,  999.0,  999.0,  999.0,  999.0
2016/04/07 15:40,  999.0,    2.1,  999.0,    1.1,   -0.5,   -2.1,   -2.6,   -2.8,   -2.7,   -2.9,   -2.9,   -2.3,   -1.1,    0.3,    1.2,    1.7,    1.4,    1.0,    0.6,  999.0,  999.0,  999.0,  999.0,  -41.9,  -39.7,  -37.5,  -35.1,  -33.4,  -31.7,  -31.2,  -28.3,  -27.8,  -24.5,  -23.1,  999.0,  999.0,  999.0,   41.2,   38.8,   37.1,   37.8,   38.5,   38.7,   38.7,   39.6,   40.3,   41.9,   42.3,   43.1,   43.7,   43.4,   42.4,   41.9,   41.2,   40.1,   38.8,   38.7,   39.1,   38.8,   38.6,   38.6,   38.2,   38.5,   38.7,   38.2,   38.9,   38.2,   39.3,   39.5,   39.6,  999.0,  999.0,  999.0,  999.0,  999.0,  999.0,  999.0,  999.0,  999.0,  999.0
2016/04/07 15:50,  999.0,    1.7,    2.3,    1.5,   -0.1,   -2.1,   -1.8,   -1.5,   -1.9,   -1.5,   -1.3,   -0.9,   -0.3,    0.2,    0.6,    1.4,    2.1,    2.3,    3.1,    5.1,  999.0,  999.0,  999.0,  999.0,  -37.0,  -37.0,  -35.6,  -32.3,  -30.4,  -28.5,  -26.1,  -23.6,  -21.0,  -21.4,  999.0,  999.0,  999.0,  999.0,   41.0,   39.8,   38.8,   39.6,   40.2,   40.9,   41.8,   43.5,   44.0,   44.5,   43.7,   44.0,   43.5,   43.2,   43.1,   42.6,   42.3,   41.6,   41.4,   40.7,   41.2,   40.5,   40.2,   40.1,   39.4,   38.3,   37.6,   37.7,   37.9,   38.5,   38.1,   38.3,   38.6,   38.6,  999.0,  999.0,  999.0,  999.0,  999.0,  999.0,  999.0,  999.0
2016/04/07 16:00,  999.0,    1.7,    2.6,    1.9,    0.3,   -1.3,   -1.0,   -1.1,   -1.0,   -0.9,   -0.5,   -0.3,    0.7,    1.4,    1.4,    2.5,  999.0,  999.0,  999.0,  999.0,  -44.0,  -42.0,  -39.3,  -37.8,  -35.9,  -34.5,  -31.8,  -31.1,  -30.5,  -28.2,  -26.1,  -25.5,  -24.5,  999.0,  999.0,  999.0,  999.0,  999.0,   37.9,   38.2,   38.3,   38.3,   38.8,   40.1,   40.9,   42.0,   42.6,   43.2,   43.6,   44.3,   44.9,   44.9,   44.2,   43.5,   43.1,   43.6,   42.4,   40.6,   40.5,   39.0,   39.3,   39.6,   39.6,   40.0,   38.0,   37.6,   37.7,   37.0,   38.0,  999.0,  999.0,  999.0,  999.0,  999.0,  999.0,  999.0,  999.0,  999.0,  999.0,  999.0
2016/04/07 16:10,  999.0,    1.5,    2.0,    0.9,   -0.6,   -1.1,   -0.7,   -0.5,   -1.1,   -1.1,   -0.5,    0.0,    0.7,    1.5,    1.7,    2.6,  999.0,  999.0,  999.0,  999.0,  -41.7,  -40.7,  -38.6,  -36.4,  -34.2,  -31.7,  -30.2,  -29.0,  -26.8,  -26.0,  -24.1,  -23.4,  -22.8,  -21.6,  999.0,  999.0,   35.1,   39.4,   38.4,   37.9,   38.0,   38.5,   39.0,   39.7,   41.7,   43.0,   44.2,   44.7,   46.4,   45.5,   44.3,   42.6,   42.4,   41.3,   40.1,   39.9,   39.8,   40.4,   39.8,   39.7,   40.8,   37.7,  999.0,  999.0,  999.0,  999.0,  999.0,  999.0,  999.0,  999.0,  999.0,  999.0,  999.0,  999.0,  999.0,  999.0,  999.0,  999.0,  999.0,  999.0
2016/04/07 16:20,  999.0,    0.5,    1.6,    1.2,    0.3,   -0.7,   -0.8,   -0.7,   -0.5,    0.0,    0.9,    1.6,    2.5,    2.9,    4.0,  999.0,  999.0,  999.0,  999.0,  999.0,  -39.9,  999.0,  -34.3,  -32.9,  -31.0,  -29.7,  -28.6,  -27.2,  -25.4,  -24.2,  -22.5,  -22.7,  -20.4,  -21.3,  999.0,  999.0,  999.0,   40.0,   38.2,   38.1,   38.3,   38.8,   39.6,   41.6,   41.5,   42.0,   42.4,   43.5,   44.5,   46.2,   45.2,   45.5,  999.0,  999.0,  999.0,  999.0,  999.0,  999.0,  999.0,  999.0,  999.0,  999.0,  999.0,  999.0,  999.0,  999.0,  999.0,  999.0,  999.0,  999.0,  999.0,  999.0,  999.0,  999.0,  999.0,  999.0,  999.0,  999.0,  999.0,  999.0
2016/04/07 16:30,  999.0,   -1.2,    0.6,    0.8,    0.0,    0.1,   -0.0,   -0.0,    0.3,    1.3,    2.0,    2.6,    3.5,    4.5,    6.0,    7.7,    8.9,   11.9,   13.1,  999.0,   16.2,  999.0,  999.0,  999.0,  -29.3,  -28.0,  -26.4,  -26.0,  -24.6,  -24.0,  -21.8,  -19.8,  -18.4,  -19.4,  999.0,  999.0,  999.0,   39.5,   38.8,   39.7,   40.0,   40.5,   41.3,   42.4,   43.6,   44.3,   44.0,   44.5,   44.1,   43.8,   42.1,   41.7,   40.2,   39.5,   39.1,   39.1,   39.3,   38.8,   39.0,   38.5,   38.0,  999.0,  999.0,  999.0,  999.0,  999.0,  999.0,  999.0,  999.0,  999.0,  999.0,  999.0,  999.0,  999.0,  999.0,  999.0,  999.0,  999.0,  999.0,  999.0
2016/04/07 16:40,  999.0,   -1.3,   -0.1,    0.8,    1.0,   -0.1,    0.4,    0.9,    1.6,    2.3,    3.9,    4.3,    4.6,    5.2,    6.5,    7.7,    9.8,   12.9,   14.1,   16.4,   19.5,   23.0,   25.4,   26.6,   28.8,   29.0,  999.0,  999.0,  -21.4,  -21.2,  -19.1,  -18.7,  -17.2,  -19.0,  999.0,  999.0,  999.0,  999.0,   40.3,   41.8,   41.8,   42.1,   43.5,   43.1,  999.0,  999.0,   43.5,  999.0,  999.0,  999.0,   41.8,   41.4,   39.9,   39.8,   40.0,   39.6,   38.4,   39.7,   39.8,   39.4,  999.0,  999.0,  999.0,  999.0,  999.0,  999.0,  999.0,  999.0,  999.0,  999.0,  999.0,  999.0,  999.0,  999.0,  999.0,  999.0,  999.0,  999.0,  999.0,  999.0
2016/04/07 16:50,  999.0,   -2.2,   -0.1,    0.7,    0.8,   -0.1,    0.2,    0.9,    1.4,    2.5,    4.3,    5.1,    4.8,    5.4,    7.6,   10.6,   13.2,   15.2,   17.4,   21.0,   24.4,   26.4,   28.1,   29.2,  999.0,  999.0,  999.0,  999.0,  -19.4,  -19.2,  -18.4,  -17.4,  -17.2,  -16.1,  999.0,  999.0,  999.0,  999.0,  999.0,  999.0,   41.7,   42.1,   43.2,   43.4,  999.0,  999.0,  999.0,  999.0,  999.0,  999.0,  999.0,  999.0,  999.0,  999.0,  999.0,  999.0,  999.0,  999.0,  999.0,  999.0,  999.0,  999.0,  999.0,    0.2,  999.0,  999.0,  999.0,  999.0,  999.0,  999.0,  999.0,  999.0,  999.0,  999.0,  999.0,  999.0,  999.0,  999.0,  999.0,  999.0
2016/04/07 17:00,  999.0,   -2.3,   -0.7,    0.2,    0.4,    0.4,    0.4,    1.1,    1.7,    3.0,    4.0,    4.7,    5.5,    6.3,    9.0,   11.8,   14.5,   16.7,   21.0,  999.0,  999.0,  999.0,  999.0,  999.0,  -24.6,  -23.0,  -21.7,  -20.4,  -19.9,  -18.8,  -18.4,  -17.6,  -17.8,  -19.0,  999.0,  999.0,  999.0,  999.0,   40.5,   41.1,   42.3,   43.0,   43.7,   44.2,  999.0,  999.0,  999.0,  999.0,  999.0,  999.0,  999.0,  999.0,  999.0,  999.0,  999.0,  999.0,  999.0,    0.1,   -0.0,   -0.1,    0.1,   -0.5,  999.0,   -0.3,    0.1,    0.1,  999.0,  999.0,  999.0,  999.0,  999.0,  999.0,  999.0,  999.0,  999.0,  999.0,  999.0,  999.0,  999.0,  999.0
2016/04/07 17:10,  999.0,   -2.9,   -2.1,   -1.0,   -0.2,    0.1,    0.4,    1.2,    2.3,    4.0,    4.8,    5.3,    5.9,    8.3,   10.9,   13.5,   16.4,   19.3,   22.7,   25.3,  999.0,  999.0,  999.0,  999.0,  999.0,  999.0,  999.0,  -18.4,  -19.2,  -18.3,  -18.8,  -18.5,  -18.6,  -17.6,  999.0,  999.0,  999.0,  999.0,   42.2,   43.9,   43.6,   42.7,  999.0,  999.0,  999.0,  999.0,  999.0,  999.0,  999.0,  999.0,  999.0,  999.0,  999.0,  999.0,  999.0,  999.0,  999.0,  999.0,  999.0,  999.0,  999.0,    0.1,  999.0,  999.0,  999.0,  999.0,  999.0,  999.0,  999.0,  999.0,  999.0,  999.0,  999.0,  999.0,  999.0,  999.0,  999.0,  999.0,  999.0,  999.0
2016/04/07 17:20,  999.0,   -3.4,   -2.8,   -1.2,   -0.5,   -1.4,   -0.9,    0.4,    2.5,    3.7,    4.5,    5.1,    6.0,    7.9,   11.1,   14.0,   17.3,   20.8,   23.4,   26.4,   28.9,   30.8,   32.2,  999.0,   35.1,   17.6,    8.9,    7.9,  999.0,  999.0,  999.0,  999.0,   11.8,  999.0,  999.0,  999.0,  999.0,  999.0,  999.0,  999.0,  999.0,  999.0,  999.0,  999.0,  999.0,  999.0,  999.0,  999.0,  999.0,  999.0,  999.0,  999.0,  999.0,  999.0,  999.0,  999.0,  999.0,  999.0,   -0.3,  999.0,  999.0,  999.0,  999.0,  999.0,  999.0,  999.0,  999.0,  999.0,  999.0,  999.0,  999.0,  999.0,  999.0,  999.0,  999.0,  999.0,  999.0,  999.0,  999.0,  999.0
2016/04/07 17:30,  999.0,   -3.0,   -2.4,   -1.5,    0.2,   -0.8,  999.0,  999.0,  999.0,    3.2,    4.8,    5.7,    7.7,   10.6,   11.8,   15.2,   18.3,   22.4,   26.5,   29.4,   30.9,   33.0,  999.0,  999.0,  999.0,  999.0,  999.0,  999.0,  999.0,  999.0,  999.0,  999.0,  999.0,  999.0,  999.0,  999.0,  999.0,  999.0,  999.0,  999.0,  999.0,  999.0,  999.0,  999.0,  999.0,  999.0,  999.0,  999.0,  999.0,  999.0,    0.2,    0.1,    0.1,  999.0,   -0.5,   -0.3,    0.0,  999.0,   -0.0,   -0.1,  999.0,  999.0,  999.0,   -0.0,  999.0,   -0.1,  999.0,   -0.1,  999.0,  999.0,  999.0,  999.0,  999.0,  999.0,  999.0,  999.0,  999.0,  999.0,  999.0,  999.0
2016/04/07 17:40,  999.0,  999.0,   -0.9,   -1.1,   -0.8,    0.1,  999.0,   -0.9,    2.1,  999.0,  999.0,  999.0,  999.0,   11.2,   14.2,   17.7,   20.2,   22.4,   25.8,   28.3,   29.8,   30.6,   31.7,   32.4,   34.0,   36.3,   36.1,   37.0,   37.9,   37.0,  999.0,  999.0,  999.0,  999.0,  999.0,  999.0,  999.0,  999.0,  999.0,  999.0,  999.0,  999.0,  999.0,  999.0,  999.0,    0.4,   -0.1,   -0.2,  999.0,  999.0,   -0.1,  999.0,   -0.1,    0.2,   -0.2,   -0.3,   -0.2,    0.3,    0.1,   -0.1,   -0.3,   -0.1,   -0.1,   -0.1,    0.0,   -0.1,  999.0,  999.0,  999.0,  999.0,  999.0,  999.0,  999.0,  999.0,  999.0,  999.0,  999.0,  999.0,  999.0,  999.0
2016/04/07 17:50,  999.0,   -0.5,   -2.0,   -1.7,   -1.7,   -2.2,   -1.8,    0.4,    3.1,    4.9,    6.1,    7.8,    9.4,   11.5,   14.2,   17.0,   19.0,   21.2,   23.6,   25.4,   27.7,   28.9,   29.2,   30.2,   30.4,   30.6,   30.5,   31.8,   33.8,   36.1,   38.0,  999.0,  999.0,  999.0,  999.0,  999.0,  999.0,  999.0,  999.0,  999.0,  999.0,  999.0,  999.0,  999.0,  999.0,  999.0,  999.0,  999.0,  999.0,  999.0,  999.0,  999.0,  999.0,  999.0,  999.0,  999.0,  999.0,  999.0,   -0.1,    0.2,  999.0,    0.3,  999.0,  999.0,  999.0,  999.0,  999.0,  999.0,  999.0,  999.0,  999.0,  999.0,  999.0,  999.0,  999.0,  999.0,  999.0,  999.0,  999.0,  999.0
2016/04/07 18:00,  999.0,   -0.9,   -1.5,   -1.1,   -0.4,   -0.2,   -0.2,    3.1,    5.6,    6.4,    7.3,    8.3,   10.7,   12.7,   14.5,   16.1,   18.4,   21.1,   23.5,   25.3,   27.3,   28.6,   29.2,   29.7,   30.0,   30.4,   29.5,   30.3,   31.5,   32.5,   34.4,   35.4,   34.5,   37.0,   39.0,  999.0,  999.0,  999.0,  999.0,  999.0,  999.0,  999.0,  999.0,  999.0,  999.0,  999.0,  999.0,  999.0,  999.0,  999.0,  999.0,  999.0,  999.0,  999.0,  999.0,  999.0,  999.0,  999.0,  999.0,  999.0,  999.0,  999.0,  999.0,  999.0,  999.0,  999.0,  999.0,  999.0,  999.0,  999.0,  999.0,  999.0,  999.0,  999.0,  999.0,  999.0,  999.0,  999.0,  999.0,  999.0
2016/04/07 18:10,  999.0,   -1.4,   -1.9,   -1.4,   -0.4,    0.0,    2.1,    4.0,    5.2,    5.9,    7.8,   10.0,   11.3,   12.5,   14.4,   16.8,   19.4,   21.8,   25.0,   26.7,   28.2,   28.9,   29.6,   30.2,   31.0,   30.8,   31.3,   30.9,   30.1,   30.4,   30.2,   30.4,   31.8,   34.2,   35.9,  999.0,  999.0,  999.0,  999.0,  999.0,  999.0,  999.0,  999.0,  999.0,  999.0,  999.0,  999.0,  999.0,  999.0,  999.0,  999.0,  999.0,  999.0,  999.0,  999.0,  999.0,  999.0,  999.0,  999.0,  999.0,  999.0,  999.0,  999.0,  999.0,  999.0,  999.0,  999.0,  999.0,  999.0,  999.0,  999.0,  999.0,  999.0,  999.0,  999.0,  999.0,  999.0,  999.0,  999.0,  999.0
2016/04/07 18:20,  999.0,   -2.2,   -2.4,   -2.0,   -1.3,    0.3,    2.4,    3.5,    4.9,    7.5,    8.6,   11.3,   12.5,   14.8,   15.7,   17.7,   21.0,   24.1,   26.8,   29.6,   30.6,   31.5,   31.7,   32.1,   32.1,   32.0,   31.9,   31.7,   30.8,   30.3,   30.8,   30.9,   32.5,   34.9,   36.7,   37.3,  999.0,  999.0,  999.0,  999.0,  999.0,  999.0,  999.0,  999.0,  999.0,  999.0,  999.0,  999.0,  999.0,  999.0,  999.0,  999.0,  999.0,  999.0,  999.0,  999.0,  999.0,  999.0,  999.0,  999.0,  999.0,  999.0,  999.0,  999.0,  999.0,  999.0,  999.0,  999.0,  999.0,  999.0,  999.0,  999.0,  999.0,  999.0,  999.0,  999.0,  999.0,  999.0,  999.0,  999.0
2016/04/07 18:30,  999.0,   -2.1,   -2.5,   -2.2,   -2.3,   -0.9,    0.6,    2.2,    4.8,    7.4,    9.7,   12.1,   14.0,   14.7,   16.8,   20.2,   20.8,   21.2,   24.7,   26.8,   28.3,    9.9,    6.1,   20.0,   12.7,   34.4,   32.7,   31.7,   30.7,   29.3,   31.6,   32.6,   34.6,   36.0,   38.9,   39.6,   40.7,   41.1,   41.3,  999.0,  999.0,  999.0,  999.0,  999.0,  999.0,  999.0,  999.0,  999.0,  999.0,  999.0,  999.0,  999.0,  999.0,  999.0,  999.0,  999.0,  999.0,  999.0,  999.0,  999.0,  999.0,  999.0,  999.0,  999.0,  999.0,  999.0,  999.0,  999.0,  999.0,  999.0,  999.0,  999.0,  999.0,  999.0,  999.0,  999.0,  999.0,  999.0,  999.0,  999.0
2016/04/07 18:40,  999.0,   -2.7,   -3.4,   -2.6,   -0.2,    0.9,    1.0,    4.2,    5.0,    8.7,   11.9,   14.5,   16.0,   18.3,   19.2,   21.7,   21.8,  999.0,  999.0,  999.0,  999.0,  999.0,  -19.8,  -21.0,  -20.1,  -19.2,  -19.1,  -19.9,  999.0,   -1.8,   -3.1,   -3.2,  999.0,  999.0,  999.0,  999.0,   41.1,   41.6,   40.8,   41.4,  999.0,  999.0,  999.0,  999.0,  999.0,  999.0,  999.0,  999.0,  999.0,  999.0,  999.0,  999.0,  999.0,  999.0,  999.0,  999.0,  999.0,  999.0,  999.0,  999.0,  999.0,  999.0,  999.0,  999.0,  999.0,  999.0,  999.0,  999.0,  999.0,  999.0,  999.0,  999.0,  999.0,  999.0,  999.0,  999.0,  999.0,  999.0,  999.0,  999.0
2016/04/07 18:50,  999.0,   -1.6,   -2.4,   -3.1,   -2.0,   -1.6,   -0.2,    2.2,    5.6,    8.9,   12.4,   14.5,   15.1,   17.3,   19.1,   18.8,   20.4,   21.1,   23.3,   26.6,   25.7,   32.5,   34.6,   39.6,   37.5,  999.0,  999.0,   10.6,   10.9,  999.0,  999.0,  999.0,  999.0,  999.0,  999.0,  999.0,  999.0,  999.0,  999.0,  999.0,  999.0,  999.0,  999.0,  999.0,  999.0,  999.0,  999.0,  999.0,  999.0,  999.0,  999.0,  999.0,  999.0,  999.0,  999.0,  999.0,  999.0,  999.0,  999.0,  999.0,  999.0,  999.0,  999.0,  999.0,  999.0,  999.0,  999.0,  999.0,  999.0,  999.0,  999.0,  999.0,  999.0,  999.0,  999.0,  999.0,  999.0,  999.0,  999.0,  999.0
2016/04/07 19:00,  999.0,   -1.6,   -2.7,   -1.9,   -1.1,    0.7,    2.0,    5.9,    6.9,    9.4,   12.1,   14.0,   17.6,   18.0,   18.4,   18.9,   21.6,   26.4,   27.6,   32.5,   33.9,   37.2,   38.2,   40.4,   38.5,   30.2,   11.2,   39.3,   41.2,  999.0,  999.0,  999.0,  999.0,  999.0,  999.0,  999.0,  999.0,  999.0,  999.0,  999.0,  999.0,  999.0,  999.0,  999.0,  999.0,  999.0,  999.0,  999.0,  999.0,  999.0,  999.0,  999.0,  999.0,  999.0,  999.0,  999.0,  999.0,  999.0,  999.0,  999.0,  999.0,  999.0,  999.0,  999.0,  999.0,  999.0,  999.0,  999.0,  999.0,  999.0,  999.0,  999.0,  999.0,  999.0,  999.0,  999.0,  999.0,  999.0,  999.0,  999.0
2016/04/07 19:10,  999.0,   -2.3,   -2.3,   -1.4,   -2.1,    2.1,    3.2,    4.5,    8.0,    9.8,   11.2,   14.1,   16.1,   18.7,   18.4,   20.3,   25.0,   26.7,   28.8,   31.6,   32.8,   34.6,   37.8,   38.3,   39.8,   17.0,   22.7,   28.2,   39.3,   34.6,   40.8,   40.6,   41.5,  999.0,  999.0,  999.0,  999.0,  999.0,  999.0,  999.0,  999.0,  999.0,  999.0,  999.0,  999.0,  999.0,  999.0,  999.0,  999.0,  999.0,  999.0,  999.0,  999.0,  999.0,  999.0,  999.0,  999.0,  999.0,  999.0,  999.0,  999.0,  999.0,  999.0,  999.0,  999.0,  999.0,  999.0,  999.0,  999.0,  999.0,  999.0,  999.0,  999.0,  999.0,  999.0,  999.0,  999.0,  999.0,  999.0,  999.0
2016/04/07 19:20,  999.0,   -2.4,   -2.4,   -2.4,   -2.8,    0.1,    2.6,    4.3,    6.4,    8.1,   11.5,   13.9,   19.2,   20.4,   22.0,   23.7,   26.3,   28.2,   30.6,   31.7,   32.6,   35.8,   37.1,   38.7,   41.6,   28.7,  -14.1,   21.3,   30.9,  999.0,  999.0,  999.0,  999.0,  999.0,  999.0,  999.0,  999.0,  999.0,  999.0,  999.0,  999.0,  999.0,  999.0,  999.0,  999.0,  999.0,  999.0,  999.0,  999.0,  999.0,  999.0,  999.0,  999.0,  999.0,  999.0,  999.0,  999.0,  999.0,  999.0,  999.0,  999.0,  999.0,  999.0,  999.0,  999.0,  999.0,  999.0,  999.0,  999.0,  999.0,  999.0,  999.0,  999.0,  999.0,  999.0,  999.0,  999.0,  999.0,  999.0,  999.0
2016/04/07 19:30,  999.0,   -1.4,   -3.8,   -1.8,    0.0,    2.1,    3.9,    4.9,    6.0,    9.3,   12.7,   19.6,   20.6,   23.7,   24.6,   26.7,   27.8,   29.7,   31.1,   33.3,   30.7,   37.8,  999.0,   36.8,  999.0,  999.0,  999.0,  999.0,  999.0,  999.0,  999.0,  999.0,  999.0,  999.0,  999.0,  999.0,  999.0,  999.0,  999.0,  999.0,  999.0,  999.0,  999.0,  999.0,  999.0,  999.0,  999.0,  999.0,  999.0,  999.0,  999.0,  999.0,  999.0,  999.0,  999.0,  999.0,  999.0,  999.0,  999.0,  999.0,  999.0,  999.0,  999.0,  999.0,  999.0,  999.0,  999.0,  999.0,  999.0,  999.0,  999.0,  999.0,  999.0,  999.0,  999.0,  999.0,  999.0,  999.0,  999.0,  999.0
2016/04/07 19:40,  999.0,   -2.0,   -3.1,   -1.5,   -0.2,    1.8,    4.3,    6.6,    9.0,   12.3,   15.6,   23.1,   22.1,   22.1,   24.8,   24.5,   25.3,  999.0,  999.0,  999.0,  999.0,    0.8,    0.7,    0.6,    0.4,   -0.0,   -0.1,   -0.0,   -0.0,    0.4,    0.4,    1.6,    2.0,  999.0,  999.0,  999.0,  999.0,  999.0,  999.0,  999.0,  999.0,  999.0,  999.0,  999.0,  999.0,  999.0,   -0.0,   -0.0,   -0.2,  999.0,    0.2,  999.0,    0.2,  999.0,    0.2,  999.0,  999.0,    0.2,  999.0,  999.0,    0.0,  999.0,  999.0,  999.0,  999.0,  999.0,  999.0,  999.0,  999.0,  999.0,  999.0,  999.0,  999.0,  999.0,  999.0,  999.0,  999.0,  999.0,  999.0,  999.0
2016/04/07 19:50,  999.0,    1.2,    2.0,    3.1,    0.6,    0.1,    0.2,  999.0,  999.0,  999.0,  999.0,  999.0,  999.0,  999.0,  999.0,  999.0,    0.1,    5.9,    5.9,    0.2,    0.2,    0.0,   -0.1,    0.2,    0.1,    0.3,    0.3,   -0.1,   -0.3,    0.1,    0.0,    0.7,    0.8,    1.5,    1.3,    0.8,  999.0,  999.0,  999.0,    0.2,   -0.3,   -0.2,   -0.3,   -0.3,    0.1,  999.0,  999.0,    0.1,  999.0,    0.0,    0.0,  999.0,    0.0,    0.1,  999.0,   -0.1,    0.6,  999.0,  999.0,  999.0,  999.0,  999.0,    0.1,  999.0,  999.0,  999.0,  999.0,  999.0,  999.0,  999.0,  999.0,  999.0,  999.0,  999.0,  999.0,  999.0,  999.0,  999.0,  999.0,  999.0
2016/04/07 20:00,  999.0,   -0.6,   -1.2,   -0.1,   -0.4,    0.2,   -0.6,    0.5,    0.8,  999.0,  999.0,  999.0,  999.0,  999.0,    9.7,    9.7,    6.4,    5.8,    4.4,    0.3,    0.2,    0.2,    0.1,    0.4,    0.0,   -0.1,    0.1,   -0.1,    0.0,    0.1,    0.6,    0.8,    0.6,    0.1,  999.0,  999.0,  999.0,  999.0,    0.6,    0.3,   -0.2,   -0.2,    0.3,   -0.2,    0.0,    0.0,    0.3,    0.2,    0.1,  999.0,    0.2,   -0.0,    0.0,   -0.0,   -0.0,    0.0,   -0.0,  999.0,    0.4,   -0.4,   -0.7,   -0.0,   -0.3,    0.0,   -0.2,   -0.3,  999.0,  999.0,  999.0,  999.0,  999.0,  999.0,  999.0,  999.0,  999.0,  999.0,  999.0,  999.0,  999.0,  999.0
2016/04/07 20:10,  999.0,    0.1,   -0.3,    0.0,    0.2,    0.9,  999.0,    0.2,    1.2,    1.4,  999.0,  999.0,  999.0,  999.0,  999.0,    1.0,    1.5,    0.5,    1.0,    0.8,    0.5,    0.5,    0.1,   -0.3,   -0.0,   -0.0,    0.2,   -0.1,    0.1,    0.1,    0.4,    0.7,    0.4,    0.4,    0.4,    0.8,    0.1,  999.0,    0.1,    0.1,   -0.1,    0.1,    0.3,    0.2,    0.2,    0.3,    0.2,    0.0,    0.0,   -0.2,   -0.3,    0.3,    0.0,   -0.0,   -0.1,   -0.2,   -0.0,   -0.0,   -0.1,    0.1,   -0.2,    0.4,    0.0,   -0.0,  999.0,   -0.2,  999.0,  999.0,    0.0,  999.0,  999.0,  999.0,  999.0,  999.0,  999.0,  999.0,  999.0,  999.0,  999.0,  999.0
2016/04/07 20:20,  999.0,   -0.0,   -1.1,   -0.3,   -0.5,    0.6,    0.3,   -0.5,   -0.7,   -0.0,  999.0,   -0.5,  999.0,   -0.9,  999.0,    1.7,    1.3,    1.4,    1.3,    1.0,    1.0,    0.9,    0.6,    0.3,    0.4,    0.3,    0.7,    1.1,    0.5,    0.2,    0.3,    0.7,    1.4,    0.5,    0.2,    0.5,    0.1,    0.2,   -0.3,   -0.0,   -0.3,    0.0,    0.1,    0.1,    0.2,   -0.0,    0.0,    0.2,    0.0,    0.1,    0.2,   -0.1,   -0.0,   -0.0,   -0.1,    0.1,   -0.2,   -0.0,    0.0,   -0.1,    0.4,    0.1,   -0.1,   -0.1,   -0.3,    0.0,   -0.2,   -0.2,    0.2,  999.0,  999.0,  999.0,  999.0,  999.0,  999.0,  999.0,  999.0,  999.0,  999.0,  999.0
2016/04/07 20:30,  999.0,   -0.2,  999.0,    0.1,  999.0,   -0.2,    0.7,    1.0,    3.1,    3.1,  999.0,  999.0,  999.0,  999.0,  999.0,  999.0,   12.0,   11.9,   10.9,   12.2,  999.0,    1.7,    1.4,    3.6,    3.5,    0.4,    0.6,    1.3,    0.6,    0.0,    0.6,    0.9,    0.5,    0.4,    0.3,  999.0,    0.4,  999.0,    0.1,    0.1,   -0.6,   -0.0,    0.1,    0.2,    0.2,    0.0,    0.8,    1.0,    0.3,    0.7,    0.0,    0.3,   -0.1,   -0.1,    0.3,    0.1,    0.1,    0.1,   -0.1,    0.2,    0.3,    0.1,    0.2,    0.2,   -0.3,   -0.1,    0.2,  999.0,  999.0,  999.0,  999.0,  999.0,  999.0,  999.0,  999.0,  999.0,  999.0,  999.0,  999.0,  999.0
2016/04/07 20:40,  999.0,  999.0,  999.0,  999.0,  999.0,  999.0,    0.1,  999.0,  999.0,   10.1,   14.7,   15.0,   15.1,   20.2,   24.6,   26.5,  999.0,  999.0,   27.5,   25.7,   28.1,  999.0,  999.0,  999.0,  999.0,  999.0,  999.0,  999.0,  999.0,  999.0,  999.0,  999.0,  999.0,  999.0,  999.0,  999.0,  999.0,  999.0,    0.4,  999.0,    0.2,  999.0,    0.2,    0.9,  999.0,    0.3,  999.0,  999.0,  999.0,  999.0,  999.0,  999.0,  999.0,  999.0,  999.0,  999.0,  999.0,   -0.6,    0.0,  999.0,    0.4,  999.0,  999.0,    0.1,  999.0,  999.0,  999.0,  999.0,  999.0,  999.0,  999.0,  999.0,  999.0,  999.0,  999.0,  999.0,  999.0,  999.0,  999.0,  999.0
2016/04/07 20:50,  999.0,  999.0,   -1.2,   -1.0,   -1.3,   -1.7,    3.9,    3.3,    2.3,    5.9,    9.6,   10.0,    8.6,   14.1,   17.5,   21.6,   25.7,  999.0,   30.3,   21.3,   28.2,  999.0,   32.4,   33.6,   34.0,  999.0,  999.0,  999.0,  999.0,   26.3,   16.6,  999.0,   11.7,  999.0,   -0.4,   -0.2,   -0.2,    0.2,    0.1,    0.0,    0.1,   -0.1,    0.1,    0.1,    0.2,    0.3,    0.3,    0.7,    0.2,  999.0,    0.9,  999.0,   -0.1,   -0.2,   -0.1,  999.0,   -0.3,   -0.3,    0.2,    0.1,    0.2,   -0.1,  999.0,   -0.2,   -0.2,   -0.3,   -0.1,  999.0,  999.0,  999.0,  999.0,  999.0,  999.0,  999.0,  999.0,  999.0,  999.0,  999.0,  999.0,  999.0
2016/04/07 21:00,  999.0,   -0.1,   -3.4,   -3.2,   -3.1,   -2.5,   -1.9,   -0.6,    2.7,    4.8,    4.5,    3.6,   10.0,    7.8,    5.5,    5.9,    9.8,   15.2,   16.5,   21.2,   23.3,   24.3,   27.8,   31.7,   30.6,  999.0,  999.0,  999.0,  999.0,  999.0,   13.3,   14.1,   -0.4,  999.0,  999.0,   -0.0,   -0.2,   -0.1,    0.2,   -0.3,   -0.2,   -0.1,    0.2,    0.2,    0.0,   -0.3,   -0.2,    0.1,   -0.3,    0.1,    0.0,    0.1,   -0.1,    0.2,   -0.1,    0.3,   -0.2,   -0.2,   -0.0,    0.2,    0.2,  999.0,   -0.4,  999.0,    0.1,  999.0,    0.1,  999.0,  999.0,  999.0,  999.0,  999.0,  999.0,  999.0,  999.0,  999.0,  999.0,  999.0,  999.0,  999.0
2016/04/07 21:10,  999.0,    0.2,    0.4,    2.3,   -0.4,    0.4,   -0.1,    2.9,    5.2,    6.0,  999.0,    5.7,    5.8,   13.1,   16.2,   16.5,   24.3,   26.1,  999.0,   29.1,   24.7,   30.5,   25.9,   27.9,   29.4,  999.0,  999.0,  999.0,  999.0,  999.0,  999.0,  999.0,  999.0,  999.0,  999.0,  999.0,  999.0,  999.0,  999.0,  999.0,  999.0,  999.0,  999.0,  999.0,   -0.3,   -0.0,    0.1,    0.0,   -0.1,   -0.0,   -0.0,  999.0,   -0.3,   -0.5,   -0.1,  999.0,   -0.6,    0.1,    0.2,    0.2,    0.1,   -0.1,   -0.2,   -0.0,    0.0,  999.0,  999.0,  999.0,  999.0,  999.0,  999.0,  999.0,  999.0,  999.0,  999.0,  999.0,  999.0,  999.0,  999.0,  999.0
2016/04/07 21:20,  999.0,  999.0,   -2.6,  999.0,  999.0,  999.0,    7.6,    7.7,    8.9,   10.6,   12.9,   13.5,   20.7,  999.0,   13.2,  999.0,   17.8,   17.4,   19.3,   20.9,  999.0,  999.0,  999.0,  999.0,   25.4,  999.0,  999.0,  999.0,  999.0,  999.0,  999.0,  999.0,   -0.4,   -0.4,  999.0,   -0.3,  999.0,  999.0,  999.0,   12.1,  999.0,  999.0,  999.0,  999.0,  999.0,  999.0,   -0.1,    0.1,  999.0,   -0.1,  999.0,  999.0,  999.0,    0.1,   -0.2,   -0.2,    0.2,   -0.0,    0.0,    0.1,  999.0,   -0.3,   -0.2,   -0.0,    0.0,  999.0,  999.0,   -0.2,  999.0,  999.0,  999.0,  999.0,   -0.1,  999.0,  999.0,  999.0,  999.0,  999.0,  999.0,  999.0
2016/04/07 21:30,  999.0,  999.0,  999.0,  999.0,  999.0,  999.0,  999.0,  999.0,    5.6,    5.7,    9.5,   11.3,   12.4,   11.2,   12.6,   15.9,   16.5,   18.2,   18.8,   22.0,   19.8,   22.6,   24.9,   27.1,   26.8,  999.0,  999.0,  999.0,  999.0,  999.0,  999.0,    0.1,    0.1,    0.1,   -0.3,  999.0,  999.0,  999.0,  999.0,   -0.8,   -0.5,   -0.0,   -0.0,   -0.0,    0.0,    0.0,    0.1,   -0.1,    0.3,    0.1,   -0.2,   -0.0,    0.3,   -0.0,    0.1,    0.3,    0.1,   -0.1,    0.2,   -0.2,    0.1,   -0.0,   -0.3,   -0.1,    0.1,  999.0,  999.0,    0.1,    0.2,  999.0,  999.0,  999.0,  999.0,  999.0,  999.0,  999.0,  999.0,  999.0,  999.0,  999.0
2016/04/07 21:40,  999.0,  999.0,  999.0,  999.0,    4.2,    5.1,    3.5,    7.0,    8.2,    7.0,    4.6,    8.7,   14.3,   16.3,   14.5,   14.0,   14.4,   17.5,   20.1,   20.2,   21.5,   26.2,   27.9,   27.4,   29.6,   29.4,  999.0,  999.0,  999.0,  999.0,  999.0,  999.0,  999.0,  999.0,  999.0,  999.0,  999.0,  999.0,   -0.3,    0.0,   -0.2,   -0.1,    0.3,    0.0,    0.2,    0.1,   -0.0,   -0.1,    0.1,   -0.7,   -0.2,   -0.2,   -0.0,    0.1,   -0.0,   -0.1,    0.1,   -0.1,   -0.3,    0.2,    0.1,    0.1,   -0.0,   -0.2,   -0.4,   -0.4,  999.0,  999.0,  999.0,  999.0,  999.0,   -0.1,    0.1,    0.2,  999.0,  999.0,  999.0,  999.0,  999.0,  999.0
2016/04/07 21:50,  999.0,  999.0,   -2.8,    2.6,   -5.1,  999.0,    4.9,    3.7,    2.5,    6.8,   10.4,    9.6,   12.9,   12.6,   20.8,   15.7,  999.0,  999.0,   20.2,  999.0,  999.0,   24.7,   25.3,   27.2,   25.7,   28.0,   32.7,  999.0,  999.0,  999.0,  999.0,  999.0,  999.0,  999.0,  999.0,  999.0,  999.0,   -0.1,   -0.2,   -0.3,   -0.2,   -0.0,  999.0,   -0.1,   -0.1,    0.1,    0.0,   -0.0,   -0.0,  999.0,   -0.1,   -0.5,   -0.2,  999.0,   -0.0,   -0.1,   -0.1,    0.2,   -0.0,   -0.1,   -0.3,    0.2,    0.1,    0.1,    0.2,  999.0,   -0.0,  999.0,  999.0,  999.0,  999.0,  999.0,    0.0,  999.0,  999.0,  999.0,  999.0,  999.0,  999.0,  999.0
2016/04/07 22:00,  999.0,    2.0,    1.5,    2.9,    2.4,    4.1,    8.2,    5.9,    7.6,    8.3,    8.8,   11.2,    8.1,    8.4,    8.7,    8.5,   10.2,   11.9,    8.4,   17.2,   17.8,   18.6,   19.5,   21.0,   20.2,   23.2,   26.1,  999.0,  999.0,  999.0,  999.0,  999.0,  999.0,   -0.1,   -0.4,   -0.1,  999.0,   -0.4,   -0.4,   -0.1,   -0.2,   -0.1,    0.1,    0.0,   -0.0,    0.2,    0.1,    0.1,    0.1,    0.1,   -0.1,   -0.3,    0.5,   -0.3,   -0.2,   -0.1,   -0.3,   -0.0,    0.1,    0.2,    0.0,   -0.1,   -0.0,    0.1,   -0.2,    0.2,    0.3,   -0.0,    0.2,   -0.1,  999.0,    0.1,    0.3,  999.0,   -0.4,  999.0,  999.0,  999.0,  999.0,  999.0
2016/04/07 22:10,  999.0,  999.0,   -1.0,  999.0,    5.1,    3.5,    6.7,    6.2,    7.3,   10.3,   13.0,   13.7,   14.3,   12.4,   11.5,  999.0,  999.0,   14.5,   18.0,   21.1,   18.8,  999.0,   20.2,  999.0,  999.0,  999.0,  999.0,  999.0,  999.0,    0.0,   -0.1,   -0.1,   -0.5,   -0.6,   -0.4,   -0.3,    0.1,   -0.2,    0.0,   -0.1,   -0.3,   -0.1,    0.1,   -0.0,   -0.1,   -0.0,   -0.1,   -0.2,    0.0,   -0.1,    0.0,   -0.0,    0.1,   -0.1,   -0.1,    0.0,   -0.2,    0.2,   -0.0,   -0.1,   -0.2,   -0.2,   -0.1,   -0.0,  999.0,    0.1,   -0.3,    0.2,  999.0,  999.0,    0.4,    0.3,  999.0,  999.0,  999.0,  999.0,  999.0,  999.0,  999.0,  999.0
2016/04/07 22:20,  999.0,  999.0,  999.0,  999.0,    1.0,  999.0,   10.3,  999.0,  999.0,    6.7,    8.3,   11.3,    7.6,    8.8,  999.0,  999.0,  999.0,  999.0,  999.0,   17.8,   17.6,  999.0,   23.4,  999.0,  999.0,  999.0,  999.0,    0.1,   -0.1,    0.2,   -0.3,   -3.4,   -2.8,   -2.5,   -2.8,   -1.2,   -1.3,   -0.3,   -0.2,   -0.1,   -0.1,    0.1,    0.1,   -0.1,    0.1,   -0.1,   -0.5,   -0.3,    0.1,   -0.0,  999.0,   -0.2,    0.1,   -0.3,   -0.4,   -0.0,   -0.2,    0.2,    0.0,    0.3,  999.0,    0.4,  999.0,  999.0,    0.2,  999.0,  999.0,  999.0,  999.0,  999.0,  999.0,  999.0,  999.0,  999.0,   -0.3,  999.0,  999.0,  999.0,  999.0,  999.0
2016/04/07 22:30,  999.0,  999.0,  999.0,  999.0,  999.0,  999.0,  999.0,  999.0,  999.0,  999.0,  999.0,  999.0,  999.0,  999.0,  999.0,  999.0,  999.0,  999.0,  999.0,  999.0,  999.0,   19.6,  999.0,  999.0,  999.0,  999.0,  999.0,  999.0,  999.0,  999.0,  999.0,  999.0,  999.0,  999.0,  999.0,  999.0,  999.0,  999.0,  999.0,  999.0,  999.0,  999.0,  999.0,  999.0,  999.0,  999.0,  999.0,  999.0,  999.0,  999.0,  999.0,  999.0,  999.0,  999.0,  999.0,  999.0,  999.0,  999.0,  999.0,  999.0,  999.0,  999.0,  999.0,  999.0,  999.0,  999.0,  999.0,  999.0,  999.0,  999.0,  999.0,  999.0,  999.0,  999.0,  999.0,  999.0,  999.0,  999.0,  999.0,  999.0
2016/04/07 22:40,  999.0,  999.0,  999.0,   -0.3,    0.4,    0.4,    0.4,  999.0,  999.0,  999.0,  999.0,   12.3,  999.0,  999.0,   21.4,   29.9,   16.1,   16.4,   15.8,   15.9,   16.0,   16.8,   16.8,  999.0,  999.0,  999.0,  999.0,   -0.3,  999.0,   -0.2,   -0.0,   -0.3,   -0.4,   -0.3,   -0.4,    0.1,    0.2,  999.0,    0.4,    0.2,   -0.2,  999.0,  999.0,  999.0,   -0.1,    0.0,  999.0,   -0.0,    0.0,  999.0,  999.0,    0.3,  999.0,  999.0,  999.0,  999.0,   -0.0,  999.0,  999.0,  999.0,   -0.2,  999.0,  999.0,    0.7,  999.0,  999.0,  999.0,  999.0,  999.0,  999.0,  999.0,  999.0,  999.0,  999.0,  999.0,  999.0,  999.0,  999.0,  999.0,  999.0
2016/04/07 22:50,  999.0,   -1.0,  999.0,    1.5,    1.4,  999.0,  999.0,  999.0,  999.0,  999.0,  999.0,  999.0,  999.0,  999.0,  999.0,  999.0,  999.0,  999.0,  999.0,  999.0,  999.0,  999.0,  999.0,  999.0,  999.0,    0.3,  999.0,    0.1,    0.1,    0.1,   -0.2,   -0.2,   -0.2,  999.0,    0.0,   -0.1,  999.0,  999.0,  999.0,    0.3,   -0.0,  999.0,   -0.3,    0.2,    0.4,    0.0,    0.1,    0.2,   -0.3,    0.0,  999.0,  999.0,    0.5,  999.0,    0.1,    0.2,  999.0,  999.0,  999.0,    0.2,    0.1,    0.3,    0.3,    0.3,   -0.2,   -0.5,   -0.3,  999.0,   -0.0,  999.0,  999.0,    0.3,  999.0,  999.0,  999.0,  999.0,  999.0,  999.0,  999.0,  999.0
2016/04/07 23:00,  999.0,    2.8,  999.0,  999.0,  999.0,  999.0,  999.0,  999.0,  999.0,  999.0,  999.0,  999.0,  999.0,  999.0,  999.0,  999.0,  999.0,  999.0,  999.0,  999.0,    7.2,  999.0,   -0.1,    0.5,    0.2,   -0.3,   -0.1,   -0.1,   -0.3,   -0.1,   -0.2,   -0.4,   -0.0,   -0.0,   -0.3,   -0.0,    0.1,    0.1,    0.1,    0.0,   -0.5,  999.0,    0.2,    0.1,    0.4,    0.4,   -0.0,  999.0,   -0.0,  999.0,   -0.2,  999.0,   -0.0,  999.0,    0.1,    0.2,  999.0,  999.0,    0.2,  999.0,  999.0,  999.0,  999.0,  999.0,   -0.1,  999.0,  999.0,  999.0,  999.0,  999.0,  999.0,  999.0,  999.0,  999.0,  999.0,  999.0,  999.0,  999.0,  999.0,  999.0
2016/04/07 23:10,  999.0,  999.0,  999.0,  999.0,  999.0,  999.0,  999.0,  999.0,  999.0,   11.2,   16.7,   12.4,   15.1,   19.2,  999.0,  999.0,  999.0,  999.0,  999.0,  999.0,  999.0,  999.0,  999.0,  999.0,  999.0,  999.0,  999.0,  999.0,  999.0,  999.0,  999.0,  999.0,  999.0,  999.0,  999.0,  999.0,  999.0,  999.0,  999.0,   -0.0,  999.0,  999.0,   -0.1,   -0.2,   -0.0,   -0.1,  999.0,  999.0,  999.0,  999.0,  999.0,  999.0,  999.0,   -0.1,  999.0,  999.0,  999.0,  999.0,  999.0,  999.0,  999.0,  999.0,  999.0,  999.0,  999.0,  999.0,  999.0,  999.0,  999.0,  999.0,  999.0,  999.0,  999.0,  999.0,  999.0,  999.0,  999.0,  999.0,  999.0,  999.0
2016/04/07 23:20,  999.0,  999.0,  999.0,  999.0,  999.0,  999.0,  999.0,  999.0,   12.3,   18.0,   19.0,   16.4,  999.0,   -0.1,    4.5,  999.0,  999.0,   18.5,  999.0,   18.3,   18.7,   18.0,  999.0,   18.5,   17.6,  999.0,   17.3,  999.0,  999.0,  999.0,  999.0,  999.0,  999.0,  999.0,  999.0,   -0.0,  999.0,    0.3,   -0.0,  999.0,    0.3,   -0.4,   -0.1,  999.0,   -0.3,  999.0,  999.0,   -0.1,    0.0,  999.0,  999.0,   -0.3,   -0.0,   -0.1,   -0.1,    0.1,    0.2,    0.1,   -0.0,   -0.0,   -0.2,   -0.1,    0.2,    0.1,  999.0,   -0.0,  999.0,  999.0,  999.0,  999.0,  999.0,  999.0,  999.0,  999.0,  999.0,  999.0,  999.0,  999.0,  999.0,  999.0
2016/04/07 23:30,  999.0,  999.0,  999.0,  999.0,  999.0,    1.1,  999.0,    3.8,    1.4,    6.0,    6.8,   13.3,  999.0,  999.0,  999.0,  999.0,  999.0,  999.0,  999.0,  999.0,  999.0,  999.0,  999.0,  999.0,  999.0,  999.0,  999.0,  999.0,  999.0,  999.0,  999.0,  999.0,  999.0,  999.0,  999.0,   -0.6,   -0.0,    0.1,    0.0,   -0.2,   -0.1,   -0.1,    0.1,   -0.0,   -0.3,   -0.2,    0.0,    0.1,    0.1,    0.2,    0.1,    0.4,    0.3,    0.2,   -0.1,   -0.0,    0.0,   -0.2,   -0.1,   -0.2,   -0.5,   -0.0,    0.2,    0.2,    0.2,    0.2,    0.1,    0.5,  999.0,  999.0,  999.0,  999.0,  999.0,  999.0,  999.0,  999.0,  999.0,  999.0,  999.0,  999.0
2016/04/07 23:40,  999.0,  999.0,  999.0,  999.0,  999.0,  999.0,  999.0,  999.0,    2.5,  999.0,  999.0,  999.0,  999.0,  999.0,  999.0,  999.0,   21.7,  999.0,  999.0,  999.0,  999.0,    5.5,    4.4,  999.0,   -0.2,    0.0,   -0.1,   -0.4,  999.0,   -0.4,   -0.0,   -0.1,  999.0,    0.2,   -0.1,   -0.0,   -0.0,  999.0,    0.1,  999.0,  999.0,   -0.2,  999.0,    0.1,    0.1,   -0.2,    0.0,  999.0,   -0.1,   -0.2,    0.1,    0.2,  999.0,   -0.1,   -0.0,   -0.2,   -0.4,  999.0,   -0.1,    0.1,   -0.2,   -0.1,    0.2,  999.0,  999.0,  999.0,   -0.6,   -0.4,  999.0,  999.0,  999.0,  999.0,  999.0,  999.0,  999.0,  999.0,  999.0,  999.0,  999.0,  999.0
2016/04/07 23:50,  999.0,  999.0,    0.1,    0.1,    0.0,    0.1,  999.0,  999.0,  999.0,   -0.0,  999.0,    0.2,    0.3,  999.0,   11.3,    8.1,   15.3,   11.6,   20.4,    6.3,    8.2,    2.9,   -0.1,   -0.4,   -0.2,   -0.0,   -0.4,   -0.2,   -0.0,   -0.0,   -0.1,    0.0,    0.0,    0.2,    0.0,   -0.0,   -0.1,   -0.2,    0.1,   -0.1,   -0.1,   -0.1,    0.0,    0.1,   -0.2,    0.3,  999.0,    0.0,    0.1,   -0.1,    0.0,   -0.0,    0.1,   -0.1,   -0.1,    0.1,    0.1,   -0.2,    0.1,    0.2,    0.1,   -0.0,   -0.1,   -0.1,    0.0,   -0.2,   -0.2,   -0.0,    0.2,   -0.0,   -0.2,   -0.2,   -0.1,    0.0,   -0.1,  999.0,  999.0,  999.0,  999.0,  999.0
